Time,TemperatureF,DewpointF,PressureIn,WindDirection,WindDirectionDegrees,WindSpeedMPH,WindSpeedGustMPH,Humidity,HourlyPrecipIn,Conditions,Clouds,dailyrainin,SoftwareType,DateUTC
2013-03-04 00:03:00,20.3,5.1,29.97,North,0,6.3,6.3,51,0.00,,---,0.00,VWS V14.01,2013-03-04 07:03:00,
2013-03-04 00:04:00,20.3,5.1,29.97,North,357,5.4,6.3,51,0.00,,---,0.00,VWS V14.01,2013-03-04 07:04:00,
2013-03-04 00:08:00,20.3,5.1,29.97,North,0,5.4,6.3,51,0.00,,---,0.00,VWS V14.01,2013-03-04 07:08:00,
2013-03-04 00:09:00,20.3,5.1,29.97,NW,318,5.8,6.3,51,0.00,,---,0.00,VWS V14.01,2013-03-04 07:09:00,
2013-03-04 00:13:00,20.3,5.1,29.97,NW,319,5.4,10.1,51,0.00,,---,0.00,VWS V14.01,2013-03-04 07:13:00,
2013-03-04 00:14:00,20.3,5.1,29.97,NNW,328,3.6,10.1,51,0.00,,---,0.00,VWS V14.01,2013-03-04 07:14:00,
2013-03-04 00:18:00,20.3,5.1,29.97,North,353,3.6,8.3,51,0.00,,---,0.00,VWS V14.01,2013-03-04 07:18:00,
2013-03-04 00:19:00,20.3,5.1,29.97,North,353,3.6,8.3,51,0.00,,---,0.00,VWS V14.01,2013-03-04 07:19:00,
2013-03-04 00:24:00,20.3,5.1,29.97,North,1,6.3,8.3,51,0.00,,---,0.00,VWS V14.01,2013-03-04 07:24:00,
2013-03-04 00:25:00,20.3,5.1,29.97,North,357,4.0,8.3,51,0.00,,---,0.00,VWS V14.01,2013-03-04 07:25:00,
2013-03-04 00:29:00,20.3,5.1,30.00,North,0,5.4,8.3,51,0.00,,---,0.00,VWS V14.01,2013-03-04 07:29:00,
2013-03-04 00:30:00,20.3,5.1,30.00,North,353,4.0,5.4,51,0.00,,---,0.00,VWS V14.01,2013-03-04 07:30:00,
2013-03-04 00:34:00,20.3,4.6,30.00,North,0,6.3,10.5,50,0.00,,---,0.00,VWS V14.01,2013-03-04 07:34:00,
2013-03-04 00:35:00,20.3,4.6,30.00,North,0,6.3,10.5,50,0.00,,---,0.00,VWS V14.01,2013-03-04 07:35:00,
2013-03-04 00:39:00,20.3,4.6,30.00,North,357,6.3,10.5,50,0.00,,---,0.00,VWS V14.01,2013-03-04 07:39:00,
2013-03-04 00:40:00,20.3,4.6,30.00,North,7,8.1,10.5,50,0.00,,---,0.00,VWS V14.01,2013-03-04 07:40:00,
2013-03-04 00:44:00,20.3,5.1,30.00,NNE,15,4.0,10.5,51,0.00,,---,0.00,VWS V14.01,2013-03-04 07:44:00,
2013-03-04 00:45:00,20.3,5.1,30.00,North,1,3.6,10.5,51,0.00,,---,0.00,VWS V14.01,2013-03-04 07:45:00,
2013-03-04 00:49:00,20.3,5.1,30.00,North,0,5.8,8.3,51,0.00,,---,0.00,VWS V14.01,2013-03-04 07:49:00,
2013-03-04 00:50:00,20.3,5.1,30.00,North,1,5.4,8.3,51,0.00,,---,0.00,VWS V14.01,2013-03-04 07:50:00,
2013-03-04 00:54:00,20.3,5.5,30.00,North,10,3.6,8.3,52,0.00,,---,0.00,VWS V14.01,2013-03-04 07:54:00,
2013-03-04 00:55:00,20.3,5.5,30.00,North,357,5.4,8.3,52,0.00,,---,0.00,VWS V14.01,2013-03-04 07:55:00,
2013-03-04 00:56:00,20.3,5.5,30.00,North,357,3.1,8.3,52,0.00,,---,0.00,VWS V14.01,2013-03-04 07:56:00,
2013-03-04 01:00:00,20.3,5.9,30.00,North,350,4.0,8.3,53,0.00,,---,0.00,VWS V14.01,2013-03-04 08:00:00,
2013-03-04 01:01:00,20.3,5.9,30.00,NNW,341,2.7,4.0,53,0.00,,---,0.00,VWS V14.01,2013-03-04 08:01:00,
2013-03-04 01:05:00,20.1,5.7,30.00,NNE,13,3.6,6.7,53,0.00,,---,0.00,VWS V14.01,2013-03-04 08:05:00,
2013-03-04 01:06:00,20.1,5.7,30.00,North,353,8.1,9.2,53,0.00,,---,0.00,VWS V14.01,2013-03-04 08:06:00,
2013-03-04 01:10:00,20.1,5.7,30.00,North,0,8.3,9.2,53,0.00,,---,0.00,VWS V14.01,2013-03-04 08:10:00,
2013-03-04 01:11:00,20.1,5.7,30.00,North,357,5.4,9.2,53,0.00,,---,0.00,VWS V14.01,2013-03-04 08:11:00,
2013-03-04 01:12:00,20.1,5.7,30.00,North,8,4.0,9.2,53,0.00,,---,0.00,VWS V14.01,2013-03-04 08:12:00,
2013-03-04 01:15:00,20.1,6.2,30.00,North,8,3.6,4.9,54,0.00,,---,0.00,VWS V14.01,2013-03-04 08:15:00,
2013-03-04 01:16:00,20.1,6.2,30.00,North,8,3.6,4.9,54,0.00,,---,0.00,VWS V14.01,2013-03-04 08:16:00,
2013-03-04 01:17:00,20.1,6.2,30.00,North,0,4.0,5.8,54,0.00,,---,0.00,VWS V14.01,2013-03-04 08:17:00,
2013-03-04 01:20:00,19.9,6.0,30.00,North,357,3.6,5.8,54,0.00,,---,0.00,VWS V14.01,2013-03-04 08:20:00,
2013-03-04 01:21:00,19.9,6.0,30.00,North,357,2.7,5.8,54,0.00,,---,0.00,VWS V14.01,2013-03-04 08:21:00,
2013-03-04 01:22:00,19.9,6.0,30.00,North,4,7.6,7.6,54,0.00,,---,0.00,VWS V14.01,2013-03-04 08:22:00,
2013-03-04 01:26:00,19.9,6.4,30.00,North,0,5.4,8.7,55,0.00,,---,0.00,VWS V14.01,2013-03-04 08:26:00,
2013-03-04 01:28:00,19.9,6.4,30.00,North,1,4.9,8.7,55,0.00,,---,0.00,VWS V14.01,2013-03-04 08:28:00,
2013-03-04 01:31:00,19.8,6.6,30.00,North,0,6.3,6.3,56,0.00,,---,0.00,VWS V14.01,2013-03-04 08:31:00,
2013-03-04 01:33:00,19.8,6.6,30.00,North,353,6.3,8.1,56,0.00,,---,0.00,VWS V14.01,2013-03-04 08:33:00,
2013-03-04 01:36:00,19.6,6.8,30.00,NNE,16,5.4,8.1,57,0.00,,---,0.00,VWS V14.01,2013-03-04 08:36:00,
2013-03-04 01:38:00,19.6,6.8,30.00,North,349,4.0,8.1,57,0.00,,---,0.00,VWS V14.01,2013-03-04 08:38:00,
2013-03-04 01:41:00,19.6,7.2,30.00,North,6,3.6,8.1,58,0.00,,---,0.00,VWS V14.01,2013-03-04 08:41:00,
2013-03-04 01:42:00,19.6,7.2,30.00,North,353,4.0,8.1,58,0.00,,---,0.00,VWS V14.01,2013-03-04 08:42:00,
2013-03-04 01:44:00,19.6,8.0,30.00,NNE,24,4.0,8.1,60,0.00,,---,0.00,VWS V14.01,2013-03-04 08:44:00,
2013-03-04 01:46:00,19.4,8.2,30.00,NNE,12,3.6,5.8,61,0.00,,---,0.00,VWS V14.01,2013-03-04 08:46:00,
2013-03-04 01:47:00,19.4,8.2,30.00,East,89,2.2,5.8,61,0.00,,---,0.00,VWS V14.01,2013-03-04 08:47:00,
2013-03-04 01:49:00,19.4,8.2,30.00,North,4,3.1,5.8,61,0.00,,---,0.00,VWS V14.01,2013-03-04 08:49:00,
2013-03-04 01:51:00,19.2,8.4,30.00,North,0,2.2,5.8,62,0.00,,---,0.00,VWS V14.01,2013-03-04 08:51:00,
2013-03-04 01:53:00,19.2,8.4,30.00,North,357,3.6,5.8,62,0.00,,---,0.00,VWS V14.01,2013-03-04 08:53:00,
2013-03-04 01:54:00,19.2,8.0,30.00,NNE,23,3.1,6.3,61,0.00,,---,0.00,VWS V14.01,2013-03-04 08:54:00,
2013-03-04 01:56:00,19.2,8.0,30.00,North,0,4.0,6.3,61,0.00,,---,0.00,VWS V14.01,2013-03-04 08:56:00,
2013-03-04 01:58:00,19.2,8.0,30.00,North,357,3.6,6.3,61,0.00,,---,0.00,VWS V14.01,2013-03-04 08:58:00,
2013-03-04 01:59:00,19.2,8.0,30.00,NNW,345,3.6,6.3,61,0.00,,---,0.00,VWS V14.01,2013-03-04 08:59:00,
2013-03-04 02:01:00,19.2,8.4,30.00,North,0,3.6,5.8,62,0.00,,---,0.00,VWS V14.01,2013-03-04 09:01:00,
2013-03-04 02:02:00,19.2,8.4,30.00,North,0,3.6,5.8,62,0.00,,---,0.00,VWS V14.01,2013-03-04 09:02:00,
2013-03-04 02:03:00,19.2,8.4,30.00,North,353,4.0,5.8,62,0.00,,---,0.00,VWS V14.01,2013-03-04 09:03:00,
2013-03-04 02:05:00,19.2,8.7,30.00,North,5,5.4,5.8,63,0.00,,---,0.00,VWS V14.01,2013-03-04 09:05:00,
2013-03-04 02:06:00,19.2,8.7,30.00,North,0,2.2,5.8,63,0.00,,---,0.00,VWS V14.01,2013-03-04 09:06:00,
2013-03-04 02:07:00,19.2,8.7,30.00,North,0,2.7,5.8,63,0.00,,---,0.00,VWS V14.01,2013-03-04 09:07:00,
2013-03-04 02:08:00,19.2,9.1,30.00,North,357,5.8,5.8,64,0.00,,---,0.00,VWS V14.01,2013-03-04 09:08:00,
2013-03-04 02:10:00,19.0,8.9,30.00,North,0,4.0,5.8,64,0.00,,---,0.00,VWS V14.01,2013-03-04 09:10:00,
2013-03-04 02:11:00,19.0,8.9,30.00,NNW,332,2.7,5.8,64,0.00,,---,0.00,VWS V14.01,2013-03-04 09:11:00,
2013-03-04 02:12:00,19.0,9.2,30.00,NNW,331,2.7,5.8,65,0.00,,---,0.00,VWS V14.01,2013-03-04 09:12:00,
2013-03-04 02:13:00,19.0,9.2,30.00,NNW,328,3.1,5.8,65,0.00,,---,0.00,VWS V14.01,2013-03-04 09:13:00,
2013-03-04 02:15:00,19.0,9.2,30.00,North,353,3.1,5.8,65,0.00,,---,0.00,VWS V14.01,2013-03-04 09:15:00,
2013-03-04 02:17:00,19.0,9.6,30.00,North,350,3.6,5.4,66,0.00,,---,0.00,VWS V14.01,2013-03-04 09:17:00,
2013-03-04 02:18:00,19.0,9.6,30.00,North,357,4.0,5.4,66,0.00,,---,0.00,VWS V14.01,2013-03-04 09:18:00,
2013-03-04 02:20:00,19.0,9.6,30.00,North,357,2.7,5.4,66,0.00,,---,0.00,VWS V14.01,2013-03-04 09:20:00,
2013-03-04 02:22:00,19.0,9.9,30.00,North,353,3.1,5.4,67,0.00,,---,0.00,VWS V14.01,2013-03-04 09:22:00,
2013-03-04 02:23:00,19.0,9.9,30.00,North,353,0.0,5.4,67,0.00,,---,0.00,VWS V14.01,2013-03-04 09:23:00,
2013-03-04 02:25:00,19.0,9.9,30.00,North,353,2.7,5.4,67,0.00,,---,0.00,VWS V14.01,2013-03-04 09:25:00,
2013-03-04 02:27:00,19.0,9.9,30.00,North,353,0.0,5.4,67,0.00,,---,0.00,VWS V14.01,2013-03-04 09:27:00,
2013-03-04 02:28:00,19.0,9.9,30.03,North,350,2.7,5.4,67,0.00,,---,0.00,VWS V14.01,2013-03-04 09:28:00,
2013-03-04 02:30:00,19.0,10.2,30.03,North,353,3.6,3.6,68,0.00,,---,0.00,VWS V14.01,2013-03-04 09:30:00,
2013-03-04 02:32:00,19.0,10.2,30.03,North,0,4.0,4.0,68,0.00,,---,0.00,VWS V14.01,2013-03-04 09:32:00,
2013-03-04 02:34:00,19.0,10.2,30.03,North,353,2.7,4.0,68,0.00,,---,0.00,VWS V14.01,2013-03-04 09:34:00,
2013-03-04 02:35:00,19.0,10.2,30.03,NNW,348,2.7,4.0,68,0.00,,---,0.00,VWS V14.01,2013-03-04 09:35:00,
2013-03-04 02:37:00,19.0,10.2,30.03,NNW,345,2.7,4.9,68,0.00,,---,0.00,VWS V14.01,2013-03-04 09:37:00,
2013-03-04 02:39:00,19.0,10.2,30.03,NNW,346,4.0,4.9,68,0.00,,---,0.00,VWS V14.01,2013-03-04 09:39:00,
2013-03-04 02:40:00,19.0,10.2,30.03,NNW,333,2.2,4.9,68,0.00,,---,0.00,VWS V14.01,2013-03-04 09:40:00,
2013-03-04 02:42:00,19.0,9.9,30.03,NW,313,4.0,4.9,67,0.00,,---,0.00,VWS V14.01,2013-03-04 09:42:00,
2013-03-04 02:44:00,19.0,9.9,30.03,North,353,2.7,4.9,67,0.00,,---,0.00,VWS V14.01,2013-03-04 09:44:00,
2013-03-04 02:45:00,19.0,9.9,30.03,NNW,345,2.7,3.6,67,0.00,,---,0.00,VWS V14.01,2013-03-04 09:45:00,
2013-03-04 02:47:00,19.0,9.9,30.03,North,0,2.7,3.6,67,0.00,,---,0.00,VWS V14.01,2013-03-04 09:47:00,
2013-03-04 02:48:00,19.0,9.9,30.03,North,357,3.1,3.6,67,0.00,,---,0.00,VWS V14.01,2013-03-04 09:48:00,
2013-03-04 02:49:00,18.9,9.4,30.03,NNW,343,2.2,3.6,66,0.00,,---,0.00,VWS V14.01,2013-03-04 09:49:00,
2013-03-04 02:50:00,18.9,9.4,30.03,NNW,344,2.2,3.6,66,0.00,,---,0.00,VWS V14.01,2013-03-04 09:50:00,
2013-03-04 02:52:00,18.9,9.4,30.03,NW,325,3.1,3.6,66,0.00,,---,0.00,VWS V14.01,2013-03-04 09:52:00,
2013-03-04 02:53:00,18.9,9.4,30.03,North,1,4.0,4.0,66,0.00,,---,0.00,VWS V14.01,2013-03-04 09:53:00,
2013-03-04 02:54:00,18.9,9.4,30.03,NNW,345,2.2,4.0,66,0.00,,---,0.00,VWS V14.01,2013-03-04 09:54:00,
2013-03-04 02:55:00,18.9,9.4,30.03,NNW,344,0.0,4.0,66,0.00,,---,0.00,VWS V14.01,2013-03-04 09:55:00,
2013-03-04 02:58:00,18.9,9.4,30.03,NNW,343,2.2,4.0,66,0.00,,---,0.00,VWS V14.01,2013-03-04 09:58:00,
2013-03-04 02:59:00,18.9,9.4,30.03,NNW,344,0.0,4.0,66,0.00,,---,0.00,VWS V14.01,2013-03-04 09:59:00,
2013-03-04 03:00:00,18.9,9.4,30.03,NNW,343,0.0,2.2,66,0.00,,---,0.00,VWS V14.01,2013-03-04 10:00:00,
2013-03-04 03:03:00,19.0,9.6,30.03,NNW,340,0.0,2.7,66,0.00,,---,0.00,VWS V14.01,2013-03-04 10:03:00,
2013-03-04 03:04:00,19.0,9.6,30.03,North,353,3.6,5.4,66,0.00,,---,0.00,VWS V14.01,2013-03-04 10:04:00,
2013-03-04 03:05:00,19.0,9.6,30.03,North,349,3.6,5.4,66,0.00,,---,0.00,VWS V14.01,2013-03-04 10:05:00,
2013-03-04 03:08:00,18.9,9.4,30.03,North,353,3.1,5.4,66,0.00,,---,0.00,VWS V14.01,2013-03-04 10:08:00,
2013-03-04 03:09:00,18.9,9.4,30.03,North,357,4.0,5.4,66,0.00,,---,0.00,VWS V14.01,2013-03-04 10:09:00,
2013-03-04 03:11:00,18.9,9.4,30.03,North,357,4.0,5.4,66,0.00,,---,0.00,VWS V14.01,2013-03-04 10:11:00,
2013-03-04 03:13:00,18.9,9.4,30.03,NNW,344,0.0,5.4,66,0.00,,---,0.00,VWS V14.01,2013-03-04 10:13:00,
2013-03-04 03:14:00,18.9,9.7,30.03,North,4,4.0,5.4,67,0.00,,---,0.00,VWS V14.01,2013-03-04 10:14:00,
2013-03-04 03:16:00,18.9,9.7,30.03,NNW,348,3.6,6.3,67,0.00,,---,0.00,VWS V14.01,2013-03-04 10:16:00,
2013-03-04 03:18:00,18.9,9.7,30.03,North,5,5.4,6.3,67,0.00,,---,0.00,VWS V14.01,2013-03-04 10:18:00,
2013-03-04 03:20:00,18.9,9.7,30.03,North,353,2.7,6.3,67,0.00,,---,0.00,VWS V14.01,2013-03-04 10:20:00,
2013-03-04 03:21:00,18.9,9.7,30.03,North,0,3.1,6.3,67,0.00,,---,0.00,VWS V14.01,2013-03-04 10:21:00,
2013-03-04 03:23:00,19.0,10.2,30.03,North,353,5.4,6.3,68,0.00,,---,0.00,VWS V14.01,2013-03-04 10:23:00,
2013-03-04 03:25:00,19.0,10.2,30.03,North,0,6.3,6.3,68,0.00,,---,0.00,VWS V14.01,2013-03-04 10:25:00,
2013-03-04 03:26:00,19.0,10.2,30.03,North,4,8.3,8.3,68,0.00,,---,0.00,VWS V14.01,2013-03-04 10:26:00,
2013-03-04 03:28:00,19.0,10.2,30.03,North,353,4.9,8.3,68,0.00,,---,0.00,VWS V14.01,2013-03-04 10:28:00,
2013-03-04 03:29:00,19.0,10.2,30.03,North,357,8.1,8.3,68,0.00,,---,0.00,VWS V14.01,2013-03-04 10:29:00,
2013-03-04 03:30:00,19.0,10.2,30.03,NNW,338,8.3,8.3,68,0.00,,---,0.00,VWS V14.01,2013-03-04 10:30:00,
2013-03-04 03:31:00,19.0,10.2,30.03,NNW,341,6.3,8.3,68,0.00,,---,0.00,VWS V14.01,2013-03-04 10:31:00,
2013-03-04 03:33:00,18.9,10.1,30.03,North,357,5.8,8.3,68,0.00,,---,0.00,VWS V14.01,2013-03-04 10:33:00,
2013-03-04 03:34:00,18.9,10.1,30.03,North,353,8.3,8.3,68,0.00,,---,0.00,VWS V14.01,2013-03-04 10:34:00,
2013-03-04 03:35:00,18.9,9.7,30.03,NNW,345,7.6,8.3,67,0.00,,---,0.00,VWS V14.01,2013-03-04 10:35:00,
2013-03-04 03:36:00,18.9,9.7,30.03,NNW,328,4.0,8.3,67,0.00,,---,0.00,VWS V14.01,2013-03-04 10:36:00,
2013-03-04 03:38:00,18.9,9.4,30.03,North,3,10.1,10.1,66,0.00,,---,0.00,VWS V14.01,2013-03-04 10:38:00,
2013-03-04 03:39:00,18.9,9.4,30.03,NNW,346,8.1,10.1,66,0.00,,---,0.00,VWS V14.01,2013-03-04 10:39:00,
2013-03-04 03:40:00,18.7,8.5,30.03,NNW,331,7.6,10.1,64,0.00,,---,0.00,VWS V14.01,2013-03-04 10:40:00,
2013-03-04 03:41:00,18.7,8.2,30.03,North,5,6.3,10.1,63,0.00,,---,0.00,VWS V14.01,2013-03-04 10:41:00,
2013-03-04 03:43:00,18.7,8.2,30.03,North,353,5.4,10.1,63,0.00,,---,0.00,VWS V14.01,2013-03-04 10:43:00,
2013-03-04 03:44:00,18.7,7.8,30.03,North,0,4.0,10.1,62,0.00,,---,0.00,VWS V14.01,2013-03-04 10:44:00,
2013-03-04 03:45:00,18.7,7.8,30.03,North,0,5.8,6.3,62,0.00,,---,0.00,VWS V14.01,2013-03-04 10:45:00,
2013-03-04 03:47:00,18.7,7.8,30.03,NW,326,3.6,6.3,62,0.00,,---,0.00,VWS V14.01,2013-03-04 10:47:00,
2013-03-04 03:48:00,18.7,7.8,30.03,North,0,3.1,6.3,62,0.00,,---,0.00,VWS V14.01,2013-03-04 10:48:00,
2013-03-04 03:49:00,18.7,7.8,30.03,NNW,340,5.4,6.3,62,0.00,,---,0.00,VWS V14.01,2013-03-04 10:49:00,
2013-03-04 03:50:00,18.7,7.5,30.03,NNE,31,8.7,8.7,61,0.00,,---,0.00,VWS V14.01,2013-03-04 10:50:00,
2013-03-04 03:52:00,18.5,6.9,30.03,NNW,346,4.0,8.7,60,0.00,,---,0.00,VWS V14.01,2013-03-04 10:52:00,
2013-03-04 03:53:00,18.5,6.9,30.03,NW,325,3.1,8.7,60,0.00,,---,0.00,VWS V14.01,2013-03-04 10:53:00,
2013-03-04 03:54:00,18.5,6.9,30.03,North,0,7.6,8.7,60,0.00,,---,0.00,VWS V14.01,2013-03-04 10:54:00,
2013-03-04 03:56:00,18.5,6.9,30.03,NNW,348,3.1,8.7,60,0.00,,---,0.00,VWS V14.01,2013-03-04 10:56:00,
2013-03-04 03:57:00,18.5,6.9,30.03,NNW,344,4.0,8.7,60,0.00,,---,0.00,VWS V14.01,2013-03-04 10:57:00,
2013-03-04 03:58:00,18.5,6.9,30.03,North,353,5.4,8.7,60,0.00,,---,0.00,VWS V14.01,2013-03-04 10:58:00,
2013-03-04 03:59:00,18.5,6.9,30.03,NNW,331,5.4,8.7,60,0.00,,---,0.00,VWS V14.01,2013-03-04 10:59:00,
2013-03-04 04:01:00,18.5,6.9,30.03,NNW,346,8.1,8.1,60,0.00,,---,0.00,VWS V14.01,2013-03-04 11:01:00,
2013-03-04 04:02:00,18.5,7.3,30.03,NNW,338,8.1,8.1,61,0.00,,---,0.00,VWS V14.01,2013-03-04 11:02:00,
2013-03-04 04:03:00,18.3,7.1,30.03,North,357,6.3,10.1,61,0.00,,---,0.00,VWS V14.01,2013-03-04 11:03:00,
2013-03-04 04:04:00,18.3,6.8,30.03,NNW,346,5.8,10.1,60,0.00,,---,0.00,VWS V14.01,2013-03-04 11:04:00,
2013-03-04 04:06:00,18.3,6.8,30.03,NW,322,7.2,10.1,60,0.00,,---,0.00,VWS V14.01,2013-03-04 11:06:00,
2013-03-04 04:07:00,18.1,7.0,30.03,NW,317,5.4,10.1,61,0.00,,---,0.00,VWS V14.01,2013-03-04 11:07:00,
2013-03-04 04:09:00,18.1,7.0,30.03,North,0,6.3,10.1,61,0.00,,---,0.00,VWS V14.01,2013-03-04 11:09:00,
2013-03-04 04:11:00,18.1,7.0,30.03,North,357,4.9,10.1,61,0.00,,---,0.00,VWS V14.01,2013-03-04 11:11:00,
2013-03-04 04:13:00,18.0,6.8,30.03,North,0,5.8,10.1,61,0.00,,---,0.00,VWS V14.01,2013-03-04 11:13:00,
2013-03-04 04:14:00,18.0,6.8,30.03,NNW,346,5.8,10.1,61,0.00,,---,0.00,VWS V14.01,2013-03-04 11:14:00,
2013-03-04 04:17:00,17.8,6.6,30.03,NNW,340,3.6,5.8,61,0.00,,---,0.00,VWS V14.01,2013-03-04 11:17:00,
2013-03-04 04:18:00,17.8,6.6,30.03,North,0,4.5,5.8,61,0.00,,---,0.00,VWS V14.01,2013-03-04 11:18:00,
2013-03-04 04:19:00,17.8,6.6,30.03,North,0,5.4,8.1,61,0.00,,---,0.00,VWS V14.01,2013-03-04 11:19:00,
2013-03-04 04:22:00,17.8,7.0,30.03,North,0,4.0,8.1,62,0.00,,---,0.00,VWS V14.01,2013-03-04 11:22:00,
2013-03-04 04:23:00,17.8,7.0,30.03,North,353,5.4,8.1,62,0.00,,---,0.00,VWS V14.01,2013-03-04 11:23:00,
2013-03-04 04:24:00,17.8,7.0,30.03,North,0,5.8,8.1,62,0.00,,---,0.00,VWS V14.01,2013-03-04 11:24:00,
2013-03-04 04:25:00,17.8,7.0,30.03,NW,315,4.0,8.1,62,0.00,,---,0.00,VWS V14.01,2013-03-04 11:25:00,
2013-03-04 04:27:00,17.6,7.2,30.03,NNW,344,6.3,8.1,63,0.00,,---,0.00,VWS V14.01,2013-03-04 11:27:00,
2013-03-04 04:28:00,17.6,7.2,30.03,NNW,345,5.4,8.1,63,0.00,,---,0.00,VWS V14.01,2013-03-04 11:28:00,
2013-03-04 04:29:00,17.6,7.2,30.03,North,0,8.1,8.1,63,0.00,,---,0.00,VWS V14.01,2013-03-04 11:29:00,
2013-03-04 04:30:00,17.6,7.2,30.03,NNW,330,5.8,8.7,63,0.00,,---,0.00,VWS V14.01,2013-03-04 11:30:00,
2013-03-04 04:32:00,17.6,7.2,30.03,North,353,7.2,7.2,63,0.00,,---,0.00,VWS V14.01,2013-03-04 11:32:00,
2013-03-04 04:33:00,17.4,7.0,30.03,NNW,327,5.4,8.3,63,0.00,,---,0.00,VWS V14.01,2013-03-04 11:33:00,
2013-03-04 04:34:00,17.4,7.0,30.03,North,0,6.3,8.3,63,0.00,,---,0.00,VWS V14.01,2013-03-04 11:34:00,
2013-03-04 04:35:00,17.4,7.0,30.03,North,353,5.8,10.5,63,0.00,,---,0.00,VWS V14.01,2013-03-04 11:35:00,
2013-03-04 04:37:00,17.2,6.8,30.03,NNW,344,6.3,10.5,63,0.00,,---,0.00,VWS V14.01,2013-03-04 11:37:00,
2013-03-04 04:38:00,17.2,6.8,30.03,North,353,7.6,10.5,63,0.00,,---,0.00,VWS V14.01,2013-03-04 11:38:00,
2013-03-04 04:39:00,17.2,6.8,30.03,NNW,344,6.3,10.5,63,0.00,,---,0.00,VWS V14.01,2013-03-04 11:39:00,
2013-03-04 04:41:00,17.1,6.7,30.03,NNW,345,4.0,10.5,63,0.00,,---,0.00,VWS V14.01,2013-03-04 11:41:00,
2013-03-04 04:42:00,17.1,6.7,30.03,North,357,5.4,10.5,63,0.00,,---,0.00,VWS V14.01,2013-03-04 11:42:00,
2013-03-04 04:43:00,17.1,6.7,30.03,NNW,328,5.4,10.5,63,0.00,,---,0.00,VWS V14.01,2013-03-04 11:43:00,
2013-03-04 04:44:00,17.1,6.7,30.03,NNW,346,5.4,10.5,63,0.00,,---,0.00,VWS V14.01,2013-03-04 11:44:00,
2013-03-04 04:46:00,17.1,6.7,30.03,North,0,5.8,5.8,63,0.00,,---,0.00,VWS V14.01,2013-03-04 11:46:00,
2013-03-04 04:47:00,17.1,6.7,30.03,NW,326,4.0,6.3,63,0.00,,---,0.00,VWS V14.01,2013-03-04 11:47:00,
2013-03-04 04:48:00,17.1,7.0,30.03,NNW,345,5.8,6.3,64,0.00,,---,0.00,VWS V14.01,2013-03-04 11:48:00,
2013-03-04 04:49:00,16.9,6.8,30.03,North,353,3.6,6.3,64,0.00,,---,0.00,VWS V14.01,2013-03-04 11:49:00,
2013-03-04 04:51:00,16.9,6.8,30.03,NNW,332,4.9,6.3,64,0.00,,---,0.00,VWS V14.01,2013-03-04 11:51:00,
2013-03-04 04:53:00,16.9,6.5,30.03,NNW,346,3.6,6.3,63,0.00,,---,0.00,VWS V14.01,2013-03-04 11:53:00,
2013-03-04 04:55:00,16.9,6.1,30.03,NW,320,4.0,6.3,62,0.00,,---,0.00,VWS V14.01,2013-03-04 11:55:00,
2013-03-04 04:56:00,16.9,6.1,30.03,North,353,3.6,6.3,62,0.00,,---,0.00,VWS V14.01,2013-03-04 11:56:00,
2013-03-04 04:58:00,16.7,6.0,30.03,North,357,5.8,6.7,62,0.00,,---,0.00,VWS V14.01,2013-03-04 11:58:00,
2013-03-04 04:59:00,16.7,6.0,30.06,North,357,6.3,7.2,62,0.00,,---,0.00,VWS V14.01,2013-03-04 11:59:00,
2013-03-04 05:00:00,16.7,6.0,30.06,North,353,4.9,8.1,62,0.00,,---,0.00,VWS V14.01,2013-03-04 12:00:00,
2013-03-04 05:01:00,16.7,6.0,30.06,North,8,3.1,5.4,62,0.00,,---,0.00,VWS V14.01,2013-03-04 12:01:00,
2013-03-04 05:03:00,16.7,6.0,30.06,North,0,3.1,5.4,62,0.00,,---,0.00,VWS V14.01,2013-03-04 12:03:00,
2013-03-04 05:04:00,16.7,6.0,30.06,North,0,2.7,5.4,62,0.00,,---,0.00,VWS V14.01,2013-03-04 12:04:00,
2013-03-04 05:05:00,16.7,6.0,30.06,NNW,328,2.7,5.4,62,0.00,,---,0.00,VWS V14.01,2013-03-04 12:05:00,
2013-03-04 05:06:00,16.7,6.0,30.06,North,3,6.3,6.3,62,0.00,,---,0.00,VWS V14.01,2013-03-04 12:06:00,
2013-03-04 05:08:00,16.7,6.3,30.06,North,0,4.9,6.3,63,0.00,,---,0.00,VWS V14.01,2013-03-04 12:08:00,
2013-03-04 05:09:00,16.7,6.3,30.06,North,357,4.0,6.3,63,0.00,,---,0.00,VWS V14.01,2013-03-04 12:09:00,
2013-03-04 05:10:00,16.5,6.5,30.06,North,0,2.7,6.3,64,0.00,,---,0.00,VWS V14.01,2013-03-04 12:10:00,
2013-03-04 05:11:00,16.5,6.5,30.06,North,353,2.7,6.3,64,0.00,,---,0.00,VWS V14.01,2013-03-04 12:11:00,
2013-03-04 05:13:00,16.5,6.5,30.06,North,353,2.7,6.3,64,0.00,,---,0.00,VWS V14.01,2013-03-04 12:13:00,
2013-03-04 05:14:00,16.5,6.5,30.06,NNW,337,4.0,6.3,64,0.00,,---,0.00,VWS V14.01,2013-03-04 12:14:00,
2013-03-04 05:15:00,16.5,6.8,30.06,North,353,4.0,4.0,65,0.00,,---,0.00,VWS V14.01,2013-03-04 12:15:00,
2013-03-04 05:17:00,16.5,6.8,30.06,North,357,0.0,4.0,65,0.00,,---,0.00,VWS V14.01,2013-03-04 12:17:00,
2013-03-04 05:18:00,16.5,6.8,30.06,North,357,3.1,4.0,65,0.00,,---,0.00,VWS V14.01,2013-03-04 12:18:00,
2013-03-04 05:19:00,16.5,7.2,30.06,North,357,2.2,4.0,66,0.00,,---,0.00,VWS V14.01,2013-03-04 12:19:00,
2013-03-04 05:20:00,16.5,7.2,30.06,North,357,2.7,4.0,66,0.00,,---,0.00,VWS V14.01,2013-03-04 12:20:00,
2013-03-04 05:22:00,16.5,7.2,30.06,North,0,2.7,4.0,66,0.00,,---,0.00,VWS V14.01,2013-03-04 12:22:00,
2013-03-04 05:23:00,16.5,7.2,30.06,North,3,4.0,4.9,66,0.00,,---,0.00,VWS V14.01,2013-03-04 12:23:00,
2013-03-04 05:24:00,16.5,7.5,30.06,North,7,0.0,4.9,67,0.00,,---,0.00,VWS V14.01,2013-03-04 12:24:00,
2013-03-04 05:25:00,16.5,7.5,30.06,North,7,2.7,4.9,67,0.00,,---,0.00,VWS V14.01,2013-03-04 12:25:00,
2013-03-04 05:27:00,16.5,7.5,30.06,North,1,2.2,4.9,67,0.00,,---,0.00,VWS V14.01,2013-03-04 12:27:00,
2013-03-04 05:29:00,16.7,8.0,30.03,North,0,4.9,4.9,68,0.00,,---,0.00,VWS V14.01,2013-03-04 12:29:00,
2013-03-04 05:30:00,16.7,8.0,30.03,NNW,344,2.7,3.6,68,0.00,,---,0.00,VWS V14.01,2013-03-04 12:30:00,
2013-03-04 05:32:00,16.7,8.3,30.03,NW,315,3.1,3.6,69,0.00,,---,0.00,VWS V14.01,2013-03-04 12:32:00,
2013-03-04 05:34:00,16.9,8.5,30.03,NNW,337,3.6,5.4,69,0.00,,---,0.00,VWS V14.01,2013-03-04 12:34:00,
2013-03-04 05:35:00,16.9,8.8,30.03,North,353,3.1,5.4,70,0.00,,---,0.00,VWS V14.01,2013-03-04 12:35:00,
2013-03-04 05:37:00,16.7,8.6,30.03,NNW,343,6.3,7.6,70,0.00,,---,0.00,VWS V14.01,2013-03-04 12:37:00,
2013-03-04 05:39:00,16.7,8.3,30.03,NW,320,3.1,7.6,69,0.00,,---,0.00,VWS V14.01,2013-03-04 12:39:00,
2013-03-04 05:40:00,16.7,8.0,30.03,NNE,25,6.3,7.6,68,0.00,,---,0.00,VWS V14.01,2013-03-04 12:40:00,
2013-03-04 05:42:00,16.5,7.5,30.03,NNW,333,2.7,7.6,67,0.00,,---,0.00,VWS V14.01,2013-03-04 12:42:00,
2013-03-04 05:44:00,16.3,7.3,30.06,NNW,334,2.7,7.6,67,0.00,,---,0.00,VWS V14.01,2013-03-04 12:44:00,
2013-03-04 05:45:00,16.3,7.0,30.06,NNW,330,3.1,3.6,66,0.00,,---,0.00,VWS V14.01,2013-03-04 12:45:00,
2013-03-04 05:48:00,16.2,6.8,30.06,North,349,0.0,4.0,66,0.00,,---,0.00,VWS V14.01,2013-03-04 12:48:00,
2013-03-04 05:49:00,16.2,6.5,30.06,NNW,332,3.6,4.0,65,0.00,,---,0.00,VWS V14.01,2013-03-04 12:49:00,
2013-03-04 05:50:00,16.2,6.5,30.06,North,353,4.0,4.0,65,0.00,,---,0.00,VWS V14.01,2013-03-04 12:50:00,
2013-03-04 05:54:00,16.0,5.6,30.06,North,353,2.7,4.9,63,0.00,,---,0.00,VWS V14.01,2013-03-04 12:54:00,
2013-03-04 05:55:00,16.0,5.6,30.06,North,353,2.7,4.9,63,0.00,,---,0.00,VWS V14.01,2013-03-04 12:55:00,
2013-03-04 05:59:00,15.8,5.4,30.06,North,357,2.7,5.4,63,0.00,,---,0.00,VWS V14.01,2013-03-04 12:59:00,
2013-03-04 06:00:00,15.8,5.4,30.06,North,357,0.0,0.0,63,0.00,,---,0.00,VWS V14.01,2013-03-04 13:00:00,
2013-03-04 06:04:00,15.8,5.4,30.06,North,353,2.7,4.9,63,0.00,,---,0.00,VWS V14.01,2013-03-04 13:04:00,
2013-03-04 06:05:00,15.8,5.4,30.06,North,353,2.7,4.9,63,0.00,,---,0.00,VWS V14.01,2013-03-04 13:05:00,
2013-03-04 06:06:00,15.8,5.4,30.06,North,350,2.2,4.9,63,0.00,,---,0.00,VWS V14.01,2013-03-04 13:06:00,
2013-03-04 06:09:00,15.8,5.4,30.06,NNW,344,2.7,4.9,63,0.00,,---,0.00,VWS V14.01,2013-03-04 13:09:00,
2013-03-04 06:10:00,15.8,5.8,30.06,NNW,342,0.0,4.9,64,0.00,,---,0.00,VWS V14.01,2013-03-04 13:10:00,
2013-03-04 06:11:00,15.8,5.8,30.06,NNW,342,0.0,4.9,64,0.00,,---,0.00,VWS V14.01,2013-03-04 13:11:00,
2013-03-04 06:14:00,15.8,6.1,30.06,NNW,339,0.0,4.9,65,0.00,,---,0.00,VWS V14.01,2013-03-04 13:14:00,
2013-03-04 06:15:00,15.8,6.1,30.06,NW,323,0.0,4.9,65,0.00,,---,0.00,VWS V14.01,2013-03-04 13:15:00,
2013-03-04 06:16:00,15.8,6.5,30.06,NW,323,0.0,0.0,66,0.00,,---,0.00,VWS V14.01,2013-03-04 13:16:00,
2013-03-04 06:19:00,15.8,6.5,30.06,NW,323,0.0,0.0,66,0.00,,---,0.00,VWS V14.01,2013-03-04 13:19:00,
2013-03-04 06:20:00,15.8,6.5,30.06,NW,323,0.0,0.0,66,0.00,,---,0.00,VWS V14.01,2013-03-04 13:20:00,
2013-03-04 06:21:00,15.8,6.5,30.06,NW,323,0.0,0.0,66,0.00,,---,0.00,VWS V14.01,2013-03-04 13:21:00,
2013-03-04 06:24:00,16.0,6.6,30.06,NW,323,0.0,0.0,66,0.00,,---,0.00,VWS V14.01,2013-03-04 13:24:00,
2013-03-04 06:25:00,16.0,6.6,30.06,NW,326,2.7,2.7,66,0.00,,---,0.00,VWS V14.01,2013-03-04 13:25:00,
2013-03-04 06:26:00,16.0,6.6,30.06,NW,324,2.2,2.7,66,0.00,,---,0.00,VWS V14.01,2013-03-04 13:26:00,
2013-03-04 06:29:00,16.0,6.6,30.06,NW,316,2.2,3.1,66,0.00,,---,0.00,VWS V14.01,2013-03-04 13:29:00,
2013-03-04 06:30:00,16.0,6.6,30.06,NW,316,0.0,2.7,66,0.00,,---,0.00,VWS V14.01,2013-03-04 13:30:00,
2013-03-04 06:31:00,16.0,6.6,30.06,NW,316,2.7,3.1,66,0.00,,---,0.00,VWS V14.01,2013-03-04 13:31:00,
2013-03-04 06:34:00,16.0,6.6,30.06,NW,316,2.2,3.1,66,0.00,,---,0.00,VWS V14.01,2013-03-04 13:34:00,
2013-03-04 06:35:00,16.0,6.6,30.06,NW,316,0.0,3.1,66,0.00,,---,0.00,VWS V14.01,2013-03-04 13:35:00,
2013-03-04 06:36:00,16.0,6.6,30.06,NW,316,0.0,3.1,66,0.00,,---,0.00,VWS V14.01,2013-03-04 13:36:00,
2013-03-04 06:40:00,16.0,6.6,30.06,NW,316,2.2,3.1,66,0.00,,---,0.00,VWS V14.01,2013-03-04 13:40:00,
2013-03-04 06:41:00,16.0,6.6,30.06,NW,309,0.0,3.6,66,0.00,,---,0.00,VWS V14.01,2013-03-04 13:41:00,
2013-03-04 06:45:00,16.2,6.8,30.06,NW,309,0.0,3.6,66,0.00,,---,0.00,VWS V14.01,2013-03-04 13:45:00,
2013-03-04 06:46:00,16.2,6.8,30.06,NW,309,0.0,0.0,66,0.00,,---,0.00,VWS V14.01,2013-03-04 13:46:00,
2013-03-04 06:50:00,16.2,6.8,30.06,WNW,303,0.0,3.6,66,0.00,,---,0.00,VWS V14.01,2013-03-04 13:50:00,
2013-03-04 06:51:00,16.2,6.8,30.06,WNW,303,0.0,3.6,66,0.00,,---,0.00,VWS V14.01,2013-03-04 13:51:00,
2013-03-04 06:55:00,16.2,6.8,30.06,WNW,302,2.2,3.6,66,0.00,,---,0.00,VWS V14.01,2013-03-04 13:55:00,
2013-03-04 06:56:00,16.2,6.5,30.06,WNW,301,0.0,3.6,65,0.00,,---,0.00,VWS V14.01,2013-03-04 13:56:00,
2013-03-04 07:00:00,16.2,6.5,30.06,WNW,294,2.2,2.2,65,0.00,,---,0.00,VWS V14.01,2013-03-04 14:00:00,
2013-03-04 07:01:00,16.2,6.5,30.06,WNW,295,2.2,2.2,65,0.00,,---,0.00,VWS V14.01,2013-03-04 14:01:00,
2013-03-04 07:02:00,16.2,6.5,30.06,WNW,295,2.2,2.2,65,0.00,,---,0.00,VWS V14.01,2013-03-04 14:02:00,
2013-03-04 07:05:00,16.2,6.5,30.06,WNW,295,0.0,2.7,65,0.00,,---,0.00,VWS V14.01,2013-03-04 14:05:00,
2013-03-04 07:06:00,16.2,6.5,30.06,WNW,295,2.7,2.7,65,0.00,,---,0.00,VWS V14.01,2013-03-04 14:06:00,
2013-03-04 07:07:00,16.2,6.5,30.06,WNW,295,2.2,2.7,65,0.00,,---,0.00,VWS V14.01,2013-03-04 14:07:00,
2013-03-04 07:10:00,16.3,6.7,30.06,WNW,295,2.2,2.7,65,0.00,,---,0.00,VWS V14.01,2013-03-04 14:10:00,
2013-03-04 07:11:00,16.3,6.7,30.06,WNW,290,0.0,3.6,65,0.00,,---,0.00,VWS V14.01,2013-03-04 14:11:00,
2013-03-04 07:12:00,16.3,6.7,30.06,WNW,290,0.0,3.6,65,0.00,,---,0.00,VWS V14.01,2013-03-04 14:12:00,
2013-03-04 07:16:00,16.3,6.7,30.09,WNW,290,0.0,0.0,65,0.00,,---,0.00,VWS V14.01,2013-03-04 14:16:00,
2013-03-04 07:17:00,16.3,6.7,30.09,WNW,291,0.0,0.0,65,0.00,,---,0.00,VWS V14.01,2013-03-04 14:17:00,
2013-03-04 07:21:00,16.3,6.7,30.09,WNW,290,0.0,0.0,65,0.00,,---,0.00,VWS V14.01,2013-03-04 14:21:00,
2013-03-04 07:22:00,16.3,6.3,30.09,WNW,290,0.0,0.0,64,0.00,,---,0.00,VWS V14.01,2013-03-04 14:22:00,
2013-03-04 07:26:00,16.5,6.5,30.09,WNW,290,0.0,0.0,64,0.00,,---,0.00,VWS V14.01,2013-03-04 14:26:00,
2013-03-04 07:27:00,16.5,6.5,30.09,WNW,290,0.0,0.0,64,0.00,,---,0.00,VWS V14.01,2013-03-04 14:27:00,
2013-03-04 07:31:00,16.5,6.5,30.09,WNW,290,0.0,0.0,64,0.00,,---,0.00,VWS V14.01,2013-03-04 14:31:00,
2013-03-04 07:32:00,16.5,6.5,30.09,WNW,290,0.0,0.0,64,0.00,,---,0.00,VWS V14.01,2013-03-04 14:32:00,
2013-03-04 07:36:00,16.7,7.0,30.09,WNW,290,0.0,0.0,65,0.00,,---,0.00,VWS V14.01,2013-03-04 14:36:00,
2013-03-04 07:37:00,16.7,7.0,30.09,WNW,290,0.0,0.0,65,0.00,,---,0.00,VWS V14.01,2013-03-04 14:37:00,
2013-03-04 07:38:00,16.7,7.0,30.09,WNW,290,0.0,0.0,65,0.00,,---,0.00,VWS V14.01,2013-03-04 14:38:00,
2013-03-04 07:41:00,16.7,7.0,30.09,NW,317,3.1,3.1,65,0.00,,---,0.00,VWS V14.01,2013-03-04 14:41:00,
2013-03-04 07:42:00,16.7,7.0,30.09,NW,317,2.7,3.1,65,0.00,,---,0.00,VWS V14.01,2013-03-04 14:42:00,
2013-03-04 07:43:00,16.7,6.7,30.09,NNW,329,2.7,3.1,64,0.00,,---,0.00,VWS V14.01,2013-03-04 14:43:00,
2013-03-04 07:46:00,16.7,6.7,30.09,NNW,337,2.7,2.7,64,0.00,,---,0.00,VWS V14.01,2013-03-04 14:46:00,
2013-03-04 07:47:00,16.7,6.7,30.09,NNW,337,2.2,2.7,64,0.00,,---,0.00,VWS V14.01,2013-03-04 14:47:00,
2013-03-04 07:48:00,16.7,6.7,30.09,NNW,341,2.7,2.7,64,0.00,,---,0.00,VWS V14.01,2013-03-04 14:48:00,
2013-03-04 07:52:00,16.7,7.0,30.09,NNW,334,0.0,3.6,65,0.00,,---,0.00,VWS V14.01,2013-03-04 14:52:00,
2013-03-04 07:53:00,16.7,7.0,30.09,NNW,333,2.2,3.6,65,0.00,,---,0.00,VWS V14.01,2013-03-04 14:53:00,
2013-03-04 07:57:00,16.9,7.5,30.09,NNW,331,2.7,3.6,66,0.00,,---,0.00,VWS V14.01,2013-03-04 14:57:00,
2013-03-04 07:58:00,16.9,7.5,30.09,NNW,331,0.0,3.6,66,0.00,,---,0.00,VWS V14.01,2013-03-04 14:58:00,
2013-03-04 08:02:00,17.1,7.7,30.09,NNW,330,2.7,2.7,66,0.00,,---,0.00,VWS V14.01,2013-03-04 15:02:00,
2013-03-04 08:03:00,17.1,7.7,30.09,NW,320,3.1,3.1,66,0.00,,---,0.00,VWS V14.01,2013-03-04 15:03:00,
2013-03-04 08:07:00,17.1,7.3,30.09,WNW,302,2.2,3.6,65,0.00,,---,0.00,VWS V14.01,2013-03-04 15:07:00,
2013-03-04 08:08:00,17.1,7.3,30.09,WNW,302,2.2,3.6,65,0.00,,---,0.00,VWS V14.01,2013-03-04 15:08:00,
2013-03-04 08:13:00,17.1,7.3,30.09,WNW,302,2.2,3.6,65,0.00,,---,0.00,VWS V14.01,2013-03-04 15:13:00,
2013-03-04 08:14:00,17.1,7.3,30.09,WNW,299,0.0,3.6,65,0.00,,---,0.00,VWS V14.01,2013-03-04 15:14:00,
2013-03-04 08:18:00,17.1,7.0,30.09,WNW,297,2.7,3.1,64,0.00,,---,0.00,VWS V14.01,2013-03-04 15:18:00,
2013-03-04 08:19:00,17.1,7.0,30.09,WNW,294,2.7,3.1,64,0.00,,---,0.00,VWS V14.01,2013-03-04 15:19:00,
2013-03-04 08:23:00,17.1,7.0,30.09,WNW,295,2.2,3.1,64,0.00,,---,0.00,VWS V14.01,2013-03-04 15:23:00,
2013-03-04 08:24:00,17.1,7.0,30.09,WNW,293,0.0,3.1,64,0.00,,---,0.00,VWS V14.01,2013-03-04 15:24:00,
2013-03-04 08:28:00,17.1,7.0,30.09,WNW,291,0.0,3.1,64,0.00,,---,0.00,VWS V14.01,2013-03-04 15:28:00,
2013-03-04 08:29:00,17.1,7.0,30.09,WNW,290,2.2,3.1,64,0.00,,---,0.00,VWS V14.01,2013-03-04 15:29:00,
2013-03-04 08:33:00,17.1,6.7,30.09,WNW,284,0.0,3.6,63,0.00,,---,0.00,VWS V14.01,2013-03-04 15:33:00,
2013-03-04 08:34:00,17.1,6.7,30.09,WNW,283,2.7,3.6,63,0.00,,---,0.00,VWS V14.01,2013-03-04 15:34:00,
2013-03-04 08:35:00,17.1,6.7,30.09,WNW,283,2.7,3.6,63,0.00,,---,0.00,VWS V14.01,2013-03-04 15:35:00,
2013-03-04 08:38:00,17.4,7.0,30.09,WNW,297,0.0,3.6,63,0.00,,---,0.00,VWS V14.01,2013-03-04 15:38:00,
2013-03-04 08:39:00,17.4,7.0,30.09,WNW,297,0.0,3.6,63,0.00,,---,0.00,VWS V14.01,2013-03-04 15:39:00,
2013-03-04 08:40:00,17.4,7.0,30.09,WNW,297,0.0,3.6,63,0.00,,---,0.00,VWS V14.01,2013-03-04 15:40:00,
2013-03-04 08:43:00,17.6,7.2,30.09,WNW,303,2.2,3.6,63,0.00,,---,0.00,VWS V14.01,2013-03-04 15:43:00,
2013-03-04 08:44:00,17.6,7.2,30.09,WNW,297,2.7,3.6,63,0.00,,---,0.00,VWS V14.01,2013-03-04 15:44:00,
2013-03-04 08:45:00,17.6,7.2,30.09,WNW,294,3.1,3.6,63,0.00,,---,0.00,VWS V14.01,2013-03-04 15:45:00,
2013-03-04 08:48:00,17.8,7.0,30.09,WNW,292,0.0,3.1,62,0.00,,---,0.00,VWS V14.01,2013-03-04 15:48:00,
2013-03-04 08:50:00,18.0,7.2,30.09,WNW,292,2.7,3.1,62,0.00,,---,0.00,VWS V14.01,2013-03-04 15:50:00,
2013-03-04 08:54:00,18.3,6.8,30.09,WNW,292,0.0,3.1,60,0.00,,---,0.00,VWS V14.01,2013-03-04 15:54:00,
2013-03-04 08:55:00,18.3,6.8,30.09,WNW,292,0.0,3.1,60,0.00,,---,0.00,VWS V14.01,2013-03-04 15:55:00,
2013-03-04 08:59:00,18.7,6.7,30.11,WNW,291,2.2,3.1,59,0.00,,---,0.00,VWS V14.01,2013-03-04 15:59:00,
2013-03-04 09:00:00,18.5,6.2,30.11,WNW,289,2.7,3.1,58,0.00,,---,0.00,VWS V14.01,2013-03-04 16:00:00,
2013-03-04 09:04:00,18.7,6.0,30.11,WNW,287,0.0,2.7,57,0.00,,---,0.00,VWS V14.01,2013-03-04 16:04:00,
2013-03-04 09:05:00,18.9,5.8,30.11,WNW,287,0.0,2.7,56,0.00,,---,0.00,VWS V14.01,2013-03-04 16:05:00,
2013-03-04 09:09:00,19.0,5.5,30.11,WNW,286,0.0,2.7,55,0.00,,---,0.00,VWS V14.01,2013-03-04 16:09:00,
2013-03-04 09:10:00,19.2,5.7,30.11,WNW,286,0.0,2.7,55,0.00,,---,0.00,VWS V14.01,2013-03-04 16:10:00,
2013-03-04 09:14:00,19.2,5.3,30.11,NW,317,3.6,3.6,54,0.00,,---,0.00,VWS V14.01,2013-03-04 16:14:00,
2013-03-04 09:15:00,19.2,5.3,30.11,NW,321,0.0,2.7,54,0.00,,---,0.00,VWS V14.01,2013-03-04 16:15:00,
2013-03-04 09:19:00,19.2,5.3,30.11,NW,311,2.2,2.7,54,0.00,,---,0.00,VWS V14.01,2013-03-04 16:19:00,
2013-03-04 09:20:00,19.4,5.9,30.11,NW,311,2.7,3.1,55,0.00,,---,0.00,VWS V14.01,2013-03-04 16:20:00,
2013-03-04 09:24:00,19.6,5.7,30.11,NW,307,2.7,3.1,54,0.00,,---,0.00,VWS V14.01,2013-03-04 16:24:00,
2013-03-04 09:25:00,19.6,5.7,30.11,NW,306,0.0,3.1,54,0.00,,---,0.00,VWS V14.01,2013-03-04 16:25:00,
2013-03-04 09:29:00,19.6,5.2,30.11,WNW,284,0.0,3.6,53,0.00,,---,0.00,VWS V14.01,2013-03-04 16:29:00,
2013-03-04 09:30:00,19.8,5.4,30.11,WNW,284,2.7,2.7,53,0.00,,---,0.00,VWS V14.01,2013-03-04 16:30:00,
2013-03-04 09:31:00,19.8,5.4,30.11,WNW,284,0.0,2.7,53,0.00,,---,0.00,VWS V14.01,2013-03-04 16:31:00,
2013-03-04 09:35:00,19.9,5.6,30.11,WNW,284,3.1,3.1,53,0.00,,---,0.00,VWS V14.01,2013-03-04 16:35:00,
2013-03-04 09:36:00,19.9,5.6,30.11,WNW,299,3.1,3.6,53,0.00,,---,0.00,VWS V14.01,2013-03-04 16:36:00,
2013-03-04 09:40:00,20.1,5.7,30.11,North,0,3.1,4.0,53,0.00,,---,0.00,VWS V14.01,2013-03-04 16:40:00,
2013-03-04 09:41:00,20.1,5.7,30.11,North,0,2.7,4.0,53,0.00,,---,0.00,VWS V14.01,2013-03-04 16:41:00,
2013-03-04 09:45:00,19.9,5.2,30.11,NW,306,0.0,0.0,52,0.00,,---,0.00,VWS V14.01,2013-03-04 16:45:00,
2013-03-04 09:46:00,20.1,5.3,30.11,NW,306,2.7,2.7,52,0.00,,---,0.00,VWS V14.01,2013-03-04 16:46:00,
2013-03-04 09:50:00,19.8,4.6,30.11,North,353,3.6,6.3,51,0.00,,---,0.00,VWS V14.01,2013-03-04 16:50:00,
2013-03-04 09:51:00,19.8,4.6,30.11,North,353,2.7,6.3,51,0.00,,---,0.00,VWS V14.01,2013-03-04 16:51:00,
2013-03-04 09:52:00,19.8,4.1,30.11,NNW,327,3.1,6.3,50,0.00,,---,0.00,VWS V14.01,2013-03-04 16:52:00,
2013-03-04 09:56:00,19.9,3.9,30.11,NW,325,3.1,6.3,49,0.00,,---,0.00,VWS V14.01,2013-03-04 16:56:00,
2013-03-04 09:58:00,19.9,3.9,30.11,NNW,344,3.6,6.3,49,0.00,,---,0.00,VWS V14.01,2013-03-04 16:58:00,
2013-03-04 10:01:00,20.1,4.0,30.11,North,0,4.9,4.9,49,0.00,,---,0.00,VWS V14.01,2013-03-04 17:01:00,
2013-03-04 10:03:00,20.1,3.6,30.11,North,7,6.3,6.3,48,0.00,,---,0.00,VWS V14.01,2013-03-04 17:03:00,
2013-03-04 10:06:00,19.8,3.7,30.11,NNW,331,0.0,6.3,49,0.00,,---,0.00,VWS V14.01,2013-03-04 17:06:00,
2013-03-04 10:08:00,19.9,4.3,30.11,NNW,331,2.7,6.3,50,0.00,,---,0.00,VWS V14.01,2013-03-04 17:08:00,
2013-03-04 10:11:00,20.1,4.5,30.11,NNW,340,3.1,6.3,50,0.00,,---,0.00,VWS V14.01,2013-03-04 17:11:00,
2013-03-04 10:12:00,20.1,4.5,30.11,North,353,2.7,6.3,50,0.00,,---,0.00,VWS V14.01,2013-03-04 17:12:00,
2013-03-04 10:13:00,20.3,4.6,30.11,NNW,338,3.1,6.3,50,0.00,,---,0.00,VWS V14.01,2013-03-04 17:13:00,
2013-03-04 10:16:00,20.1,4.0,30.11,NNW,343,4.0,4.0,49,0.00,,---,0.00,VWS V14.01,2013-03-04 17:16:00,
2013-03-04 10:17:00,20.3,4.2,30.11,NNW,340,2.2,4.0,49,0.00,,---,0.00,VWS V14.01,2013-03-04 17:17:00,
2013-03-04 10:18:00,20.3,4.2,30.11,North,353,3.6,4.0,49,0.00,,---,0.00,VWS V14.01,2013-03-04 17:18:00,
2013-03-04 10:21:00,20.5,4.4,30.11,North,0,3.1,5.8,49,0.00,,---,0.00,VWS V14.01,2013-03-04 17:21:00,
2013-03-04 10:22:00,20.5,3.9,30.11,North,7,4.5,5.8,48,0.00,,---,0.00,VWS V14.01,2013-03-04 17:22:00,
2013-03-04 10:23:00,20.5,3.9,30.11,North,357,5.4,5.8,48,0.00,,---,0.00,VWS V14.01,2013-03-04 17:23:00,
2013-03-04 10:26:00,20.7,4.1,30.11,NW,317,3.1,6.3,48,0.00,,---,0.00,VWS V14.01,2013-03-04 17:26:00,
2013-03-04 10:27:00,20.7,4.1,30.11,North,349,3.6,6.3,48,0.00,,---,0.00,VWS V14.01,2013-03-04 17:27:00,
2013-03-04 10:29:00,20.8,4.2,30.11,North,357,2.7,6.3,48,0.00,,---,0.00,VWS V14.01,2013-03-04 17:29:00,
2013-03-04 10:31:00,21.0,4.4,30.11,North,350,2.7,3.1,48,0.00,,---,0.00,VWS V14.01,2013-03-04 17:31:00,
2013-03-04 10:32:00,21.0,4.4,30.11,NNW,328,3.6,3.6,48,0.00,,---,0.00,VWS V14.01,2013-03-04 17:32:00,
2013-03-04 10:34:00,21.2,4.6,30.11,NW,324,2.7,3.6,48,0.00,,---,0.00,VWS V14.01,2013-03-04 17:34:00,
2013-03-04 10:36:00,21.6,4.9,30.11,NW,313,2.2,4.0,48,0.00,,---,0.00,VWS V14.01,2013-03-04 17:36:00,
2013-03-04 10:37:00,21.6,4.9,30.11,NW,314,2.7,4.0,48,0.00,,---,0.00,VWS V14.01,2013-03-04 17:37:00,
2013-03-04 10:39:00,21.7,4.6,30.11,NNE,14,4.9,5.8,47,0.00,,---,0.00,VWS V14.01,2013-03-04 17:39:00,
2013-03-04 10:41:00,21.4,3.8,30.11,NNW,328,3.1,6.3,46,0.00,,---,0.00,VWS V14.01,2013-03-04 17:41:00,
2013-03-04 10:42:00,21.4,3.8,30.11,NNW,346,3.6,6.3,46,0.00,,---,0.00,VWS V14.01,2013-03-04 17:42:00,
2013-03-04 10:44:00,21.2,3.7,30.11,North,357,4.0,6.3,46,0.00,,---,0.00,VWS V14.01,2013-03-04 17:44:00,
2013-03-04 10:46:00,21.0,4.0,30.11,NW,324,4.0,6.3,47,0.00,,---,0.00,VWS V14.01,2013-03-04 17:46:00,
2013-03-04 10:47:00,21.0,4.0,30.11,NNW,334,3.6,6.3,47,0.00,,---,0.00,VWS V14.01,2013-03-04 17:47:00,
2013-03-04 10:49:00,21.0,4.0,30.11,North,357,5.8,6.3,47,0.00,,---,0.00,VWS V14.01,2013-03-04 17:49:00,
2013-03-04 10:52:00,21.0,4.0,30.11,NNW,333,2.2,6.3,47,0.00,,---,0.00,VWS V14.01,2013-03-04 17:52:00,
2013-03-04 10:54:00,21.6,4.5,30.11,NW,325,2.7,6.3,47,0.00,,---,0.00,VWS V14.01,2013-03-04 17:54:00,
2013-03-04 10:57:00,21.9,4.8,30.11,NNW,341,2.7,6.3,47,0.00,,---,0.00,VWS V14.01,2013-03-04 17:57:00,
2013-03-04 10:58:00,21.9,4.3,30.11,North,5,4.9,6.3,46,0.00,,---,0.00,VWS V14.01,2013-03-04 17:58:00,
2013-03-04 10:59:00,21.7,3.7,30.11,NNW,344,4.9,6.3,45,0.00,,---,0.00,VWS V14.01,2013-03-04 17:59:00,
2013-03-04 11:02:00,21.6,3.5,30.11,NNW,346,4.0,6.3,45,0.00,,---,0.00,VWS V14.01,2013-03-04 18:02:00,
2013-03-04 11:03:00,21.6,3.5,30.11,NNE,15,6.3,6.3,45,0.00,,---,0.00,VWS V14.01,2013-03-04 18:03:00,
2013-03-04 11:04:00,21.6,3.5,30.11,North,5,5.4,6.3,45,0.00,,---,0.00,VWS V14.01,2013-03-04 18:04:00,
2013-03-04 11:07:00,21.6,4.0,30.11,NNE,17,6.3,6.3,46,0.00,,---,0.00,VWS V14.01,2013-03-04 18:07:00,
2013-03-04 11:08:00,21.6,3.5,30.11,North,353,2.7,6.3,45,0.00,,---,0.00,VWS V14.01,2013-03-04 18:08:00,
2013-03-04 11:09:00,21.6,3.5,30.11,North,2,4.0,6.3,45,0.00,,---,0.00,VWS V14.01,2013-03-04 18:09:00,
2013-03-04 11:12:00,21.9,4.3,30.11,North,0,4.5,6.3,46,0.00,,---,0.00,VWS V14.01,2013-03-04 18:12:00,
2013-03-04 11:13:00,21.9,4.3,30.11,North,9,5.4,6.3,46,0.00,,---,0.00,VWS V14.01,2013-03-04 18:13:00,
2013-03-04 11:14:00,21.9,3.8,30.11,North,357,7.6,7.6,45,0.00,,---,0.00,VWS V14.01,2013-03-04 18:14:00,
2013-03-04 11:17:00,21.6,3.0,30.11,North,1,8.3,9.6,44,0.00,,---,0.00,VWS V14.01,2013-03-04 18:17:00,
2013-03-04 11:18:00,21.4,2.9,30.11,NNW,335,4.9,9.6,44,0.00,,---,0.00,VWS V14.01,2013-03-04 18:18:00,
2013-03-04 11:19:00,21.4,3.3,30.11,NNW,330,3.6,9.6,45,0.00,,---,0.00,VWS V14.01,2013-03-04 18:19:00,
2013-03-04 11:22:00,21.4,3.3,30.11,North,2,4.0,9.6,45,0.00,,---,0.00,VWS V14.01,2013-03-04 18:22:00,
2013-03-04 11:23:00,21.4,3.3,30.11,North,357,4.0,9.6,45,0.00,,---,0.00,VWS V14.01,2013-03-04 18:23:00,
2013-03-04 11:24:00,21.4,3.3,30.11,NNE,17,5.4,9.6,45,0.00,,---,0.00,VWS V14.01,2013-03-04 18:24:00,
2013-03-04 11:27:00,21.4,3.3,30.11,North,357,5.8,9.6,45,0.00,,---,0.00,VWS V14.01,2013-03-04 18:27:00,
2013-03-04 11:28:00,21.4,2.9,30.11,North,0,4.0,9.6,44,0.00,,---,0.00,VWS V14.01,2013-03-04 18:28:00,
2013-03-04 11:29:00,21.4,2.9,30.11,WNW,302,3.6,9.6,44,0.00,,---,0.00,VWS V14.01,2013-03-04 18:29:00,
2013-03-04 11:30:00,21.4,2.9,30.11,WNW,302,4.0,9.6,44,0.00,,---,0.00,VWS V14.01,2013-03-04 18:30:00,
2013-03-04 11:34:00,21.7,3.2,30.11,NNW,345,5.4,8.1,44,0.00,,---,0.00,VWS V14.01,2013-03-04 18:34:00,
2013-03-04 11:35:00,21.9,3.4,30.11,North,0,3.6,8.1,44,0.00,,---,0.00,VWS V14.01,2013-03-04 18:35:00,
2013-03-04 11:39:00,21.9,2.9,30.11,North,357,5.8,8.1,43,0.00,,---,0.00,VWS V14.01,2013-03-04 18:39:00,
2013-03-04 11:40:00,21.9,2.9,30.11,NNW,341,4.9,8.1,43,0.00,,---,0.00,VWS V14.01,2013-03-04 18:40:00,
2013-03-04 11:44:00,21.9,2.9,30.11,NW,316,0.0,8.1,43,0.00,,---,0.00,VWS V14.01,2013-03-04 18:44:00,
2013-03-04 11:45:00,21.9,2.9,30.11,NW,318,3.1,8.1,43,0.00,,---,0.00,VWS V14.01,2013-03-04 18:45:00,
2013-03-04 11:50:00,22.5,3.4,30.11,NNW,344,2.7,8.3,43,0.00,,---,0.00,VWS V14.01,2013-03-04 18:50:00,
2013-03-04 11:51:00,22.6,3.5,30.11,North,357,5.4,8.3,43,0.00,,---,0.00,VWS V14.01,2013-03-04 18:51:00,
2013-03-04 11:55:00,22.6,3.0,30.11,North,357,5.8,8.3,42,0.00,,---,0.00,VWS V14.01,2013-03-04 18:55:00,
2013-03-04 11:56:00,22.5,2.8,30.11,North,353,2.7,8.3,42,0.00,,---,0.00,VWS V14.01,2013-03-04 18:56:00,
2013-03-04 12:00:00,21.9,2.4,30.11,North,0,5.8,8.3,42,0.00,,---,0.00,VWS V14.01,2013-03-04 19:00:00,
2013-03-04 12:01:00,21.9,2.9,30.11,NNW,335,3.6,6.3,43,0.00,,---,0.00,VWS V14.01,2013-03-04 19:01:00,
2013-03-04 12:05:00,22.1,2.5,30.11,North,357,5.8,7.6,42,0.00,,---,0.00,VWS V14.01,2013-03-04 19:05:00,
2013-03-04 12:06:00,21.9,2.4,30.11,North,3,4.9,8.3,42,0.00,,---,0.00,VWS V14.01,2013-03-04 19:06:00,
2013-03-04 12:10:00,21.9,2.9,30.11,NNW,338,4.0,8.3,43,0.00,,---,0.00,VWS V14.01,2013-03-04 19:10:00,
2013-03-04 12:11:00,22.1,3.0,30.11,North,353,3.6,8.3,43,0.00,,---,0.00,VWS V14.01,2013-03-04 19:11:00,
2013-03-04 12:15:00,22.3,2.7,30.11,North,4,7.6,10.1,42,0.00,,---,0.00,VWS V14.01,2013-03-04 19:15:00,
2013-03-04 12:16:00,22.3,2.7,30.11,North,357,5.4,8.3,42,0.00,,---,0.00,VWS V14.01,2013-03-04 19:16:00,
2013-03-04 12:20:00,21.7,2.2,30.11,NNW,329,8.1,8.7,42,0.00,,---,0.00,VWS V14.01,2013-03-04 19:20:00,
2013-03-04 12:21:00,21.9,2.4,30.11,North,0,4.9,8.7,42,0.00,,---,0.00,VWS V14.01,2013-03-04 19:21:00,
2013-03-04 12:25:00,21.9,2.4,30.11,North,3,7.6,8.7,42,0.00,,---,0.00,VWS V14.01,2013-03-04 19:25:00,
2013-03-04 12:26:00,21.9,1.8,30.11,NNW,345,3.6,8.7,41,0.00,,---,0.00,VWS V14.01,2013-03-04 19:26:00,
2013-03-04 12:30:00,22.1,1.5,30.11,North,8,6.3,6.3,40,0.00,,---,0.00,VWS V14.01,2013-03-04 19:30:00,
2013-03-04 12:31:00,22.3,1.6,30.11,NNE,15,5.8,6.3,40,0.00,,---,0.00,VWS V14.01,2013-03-04 19:31:00,
2013-03-04 12:32:00,22.3,1.6,30.11,NNE,15,5.8,6.3,40,0.00,,---,0.00,VWS V14.01,2013-03-04 19:32:00,
2013-03-04 12:35:00,22.5,1.8,30.11,North,357,4.0,6.3,40,0.00,,---,0.00,VWS V14.01,2013-03-04 19:35:00,
2013-03-04 12:36:00,22.5,1.8,30.11,North,2,6.3,8.3,40,0.00,,---,0.00,VWS V14.01,2013-03-04 19:36:00,
2013-03-04 12:37:00,22.5,1.8,30.11,North,2,6.3,8.3,40,0.00,,---,0.00,VWS V14.01,2013-03-04 19:37:00,
2013-03-04 12:40:00,22.5,1.8,30.11,NNW,332,4.0,8.3,40,0.00,,---,0.00,VWS V14.01,2013-03-04 19:40:00,
2013-03-04 12:41:00,22.5,1.8,30.11,NW,310,5.4,8.3,40,0.00,,---,0.00,VWS V14.01,2013-03-04 19:41:00,
2013-03-04 12:42:00,22.5,1.8,30.11,NNW,334,3.6,8.3,40,0.00,,---,0.00,VWS V14.01,2013-03-04 19:42:00,
2013-03-04 12:46:00,22.6,1.4,30.11,NW,316,0.0,3.6,39,0.00,,---,0.00,VWS V14.01,2013-03-04 19:46:00,
2013-03-04 12:47:00,22.8,2.1,30.11,North,357,4.9,4.9,40,0.00,,---,0.00,VWS V14.01,2013-03-04 19:47:00,
2013-03-04 12:51:00,22.6,0.9,30.11,NNE,18,5.4,7.6,38,0.00,,---,0.00,VWS V14.01,2013-03-04 19:51:00,
2013-03-04 12:52:00,22.5,0.7,30.11,North,357,4.9,7.6,38,0.00,,---,0.00,VWS V14.01,2013-03-04 19:52:00,
2013-03-04 12:53:00,22.5,0.7,30.11,North,2,4.9,7.6,38,0.00,,---,0.00,VWS V14.01,2013-03-04 19:53:00,
2013-03-04 12:56:00,22.3,1.1,30.11,NNW,341,3.6,7.6,39,0.00,,---,0.00,VWS V14.01,2013-03-04 19:56:00,
2013-03-04 12:57:00,22.5,1.8,30.11,North,357,6.7,7.6,40,0.00,,---,0.00,VWS V14.01,2013-03-04 19:57:00,
2013-03-04 12:58:00,22.5,1.8,30.11,North,357,4.0,7.6,40,0.00,,---,0.00,VWS V14.01,2013-03-04 19:58:00,
2013-03-04 13:01:00,22.3,1.1,30.11,NNW,341,5.8,5.8,39,0.00,,---,0.00,VWS V14.01,2013-03-04 20:01:00,
2013-03-04 13:02:00,22.3,0.5,30.11,North,0,3.6,5.8,38,0.00,,---,0.00,VWS V14.01,2013-03-04 20:02:00,
2013-03-04 13:03:00,22.3,0.5,30.11,North,357,4.0,5.8,38,0.00,,---,0.00,VWS V14.01,2013-03-04 20:03:00,
2013-03-04 13:06:00,22.5,0.7,30.11,North,5,2.7,5.8,38,0.00,,---,0.00,VWS V14.01,2013-03-04 20:06:00,
2013-03-04 13:07:00,22.5,0.7,30.11,North,1,4.0,5.8,38,0.00,,---,0.00,VWS V14.01,2013-03-04 20:07:00,
2013-03-04 13:08:00,22.5,0.7,30.11,North,1,2.7,5.8,38,0.00,,---,0.00,VWS V14.01,2013-03-04 20:08:00,
2013-03-04 13:11:00,22.8,1.6,30.11,NW,309,3.1,5.8,39,0.00,,---,0.00,VWS V14.01,2013-03-04 20:11:00,
2013-03-04 13:12:00,23.0,1.8,30.11,NW,307,3.1,5.8,39,0.00,,---,0.00,VWS V14.01,2013-03-04 20:12:00,
2013-03-04 13:13:00,23.0,1.8,30.11,NW,306,2.7,5.8,39,0.00,,---,0.00,VWS V14.01,2013-03-04 20:13:00,
2013-03-04 13:16:00,23.2,1.4,30.11,NW,321,0.0,2.7,38,0.00,,---,0.00,VWS V14.01,2013-03-04 20:16:00,
2013-03-04 13:17:00,23.4,2.1,30.11,WNW,293,2.2,3.6,39,0.00,,---,0.00,VWS V14.01,2013-03-04 20:17:00,
2013-03-04 13:18:00,23.5,1.7,30.11,WNW,293,0.0,3.6,38,0.00,,---,0.00,VWS V14.01,2013-03-04 20:18:00,
2013-03-04 13:21:00,23.9,1.4,30.11,North,7,4.0,5.4,37,0.00,,---,0.00,VWS V14.01,2013-03-04 20:21:00,
2013-03-04 13:22:00,23.7,0.7,30.11,North,5,4.9,5.4,36,0.00,,---,0.00,VWS V14.01,2013-03-04 20:22:00,
2013-03-04 13:23:00,23.7,0.7,30.11,North,3,4.9,5.4,36,0.00,,---,0.00,VWS V14.01,2013-03-04 20:23:00,
2013-03-04 13:26:00,23.4,-0.2,30.11,North,357,2.2,5.4,35,0.00,,---,0.00,VWS V14.01,2013-03-04 20:26:00,
2013-03-04 13:27:00,23.4,0.4,30.11,NW,310,2.7,5.4,36,0.00,,---,0.00,VWS V14.01,2013-03-04 20:27:00,
2013-03-04 13:28:00,23.4,0.4,30.11,NW,310,0.0,5.4,36,0.00,,---,0.00,VWS V14.01,2013-03-04 20:28:00,
2013-03-04 13:32:00,23.5,0.5,30.11,WNW,285,3.1,3.1,36,0.00,,---,0.00,VWS V14.01,2013-03-04 20:32:00,
2013-03-04 13:33:00,23.7,0.1,30.11,WNW,282,2.2,4.9,35,0.00,,---,0.00,VWS V14.01,2013-03-04 20:33:00,
2013-03-04 13:34:00,23.9,0.2,30.11,WNW,283,2.2,4.9,35,0.00,,---,0.00,VWS V14.01,2013-03-04 20:34:00,
2013-03-04 13:37:00,24.1,0.4,30.11,North,357,3.1,4.9,35,0.00,,---,0.00,VWS V14.01,2013-03-04 20:37:00,
2013-03-04 13:38:00,24.1,0.4,30.11,North,357,3.6,4.9,35,0.00,,---,0.00,VWS V14.01,2013-03-04 20:38:00,
2013-03-04 13:39:00,24.1,0.4,30.11,North,357,2.7,4.9,35,0.00,,---,0.00,VWS V14.01,2013-03-04 20:39:00,
2013-03-04 13:43:00,23.7,0.1,30.11,NNE,16,3.1,4.9,35,0.00,,---,0.00,VWS V14.01,2013-03-04 20:43:00,
2013-03-04 13:44:00,23.5,-0.1,30.11,North,353,4.0,4.9,35,0.00,,---,0.00,VWS V14.01,2013-03-04 20:44:00,
2013-03-04 13:48:00,23.5,-0.1,30.11,NW,310,3.1,4.9,35,0.00,,---,0.00,VWS V14.01,2013-03-04 20:48:00,
2013-03-04 13:49:00,23.5,-0.1,30.11,NW,323,3.1,4.9,35,0.00,,---,0.00,VWS V14.01,2013-03-04 20:49:00,
2013-03-04 13:53:00,23.5,-0.1,30.11,North,0,4.0,4.9,35,0.00,,---,0.00,VWS V14.01,2013-03-04 20:53:00,
2013-03-04 13:54:00,23.5,-0.7,30.11,North,1,3.6,4.9,34,0.00,,---,0.00,VWS V14.01,2013-03-04 20:54:00,
2013-03-04 13:58:00,23.2,-1.0,30.11,North,11,0.0,4.9,34,0.00,,---,0.00,VWS V14.01,2013-03-04 20:58:00,
2013-03-04 13:59:00,23.2,-1.0,30.11,North,11,2.2,4.9,34,0.00,,---,0.00,VWS V14.01,2013-03-04 20:59:00,
2013-03-04 14:03:00,23.2,-0.4,30.11,North,9,2.2,2.7,35,0.00,,---,0.00,VWS V14.01,2013-03-04 21:03:00,
2013-03-04 14:04:00,23.2,-0.4,30.11,NW,324,2.7,2.7,35,0.00,,---,0.00,VWS V14.01,2013-03-04 21:04:00,
2013-03-04 14:08:00,23.4,-0.2,30.11,North,2,3.1,4.0,35,0.00,,---,0.00,VWS V14.01,2013-03-04 21:08:00,
2013-03-04 14:09:00,23.2,-1.0,30.11,North,11,2.7,4.0,34,0.00,,---,0.00,VWS V14.01,2013-03-04 21:09:00,
2013-03-04 14:13:00,23.0,-0.6,30.11,North,357,4.0,5.4,35,0.00,,---,0.00,VWS V14.01,2013-03-04 21:13:00,
2013-03-04 14:14:00,23.0,-0.6,30.11,NNE,23,4.0,5.4,35,0.00,,---,0.00,VWS V14.01,2013-03-04 21:14:00,
2013-03-04 14:18:00,22.6,-0.9,30.11,NNW,342,2.7,4.0,35,0.00,,---,0.00,VWS V14.01,2013-03-04 21:18:00,
2013-03-04 14:19:00,22.6,-0.9,30.11,North,353,4.9,4.9,35,0.00,,---,0.00,VWS V14.01,2013-03-04 21:19:00,
2013-03-04 14:20:00,22.6,-0.9,30.11,NW,325,3.6,4.9,35,0.00,,---,0.00,VWS V14.01,2013-03-04 21:20:00,
2013-03-04 14:23:00,22.6,-0.9,30.11,West,276,3.6,4.9,35,0.00,,---,0.00,VWS V14.01,2013-03-04 21:23:00,
2013-03-04 14:24:00,22.8,-0.1,30.11,WSW,257,3.1,4.9,36,0.00,,---,0.00,VWS V14.01,2013-03-04 21:24:00,
2013-03-04 14:25:00,22.8,-0.1,30.11,WSW,257,3.1,4.9,36,0.00,,---,0.00,VWS V14.01,2013-03-04 21:25:00,
2013-03-04 14:29:00,22.8,-0.1,30.11,WSW,245,0.0,4.9,36,0.00,,---,0.00,VWS V14.01,2013-03-04 21:29:00,
2013-03-04 14:30:00,22.8,-0.7,30.11,North,353,3.1,4.9,35,0.00,,---,0.00,VWS V14.01,2013-03-04 21:30:00,
2013-03-04 14:34:00,22.6,-0.3,30.11,North,4,2.7,5.4,36,0.00,,---,0.00,VWS V14.01,2013-03-04 21:34:00,
2013-03-04 14:35:00,22.6,-0.3,30.11,North,4,2.7,5.4,36,0.00,,---,0.00,VWS V14.01,2013-03-04 21:35:00,
2013-03-04 14:36:00,22.5,-0.4,30.11,North,2,3.1,5.4,36,0.00,,---,0.00,VWS V14.01,2013-03-04 21:36:00,
2013-03-04 14:39:00,22.3,-0.6,30.11,North,357,4.0,5.8,36,0.00,,---,0.00,VWS V14.01,2013-03-04 21:39:00,
2013-03-04 14:40:00,22.3,-0.6,30.11,NNW,332,2.2,5.8,36,0.00,,---,0.00,VWS V14.01,2013-03-04 21:40:00,
2013-03-04 14:41:00,22.3,-0.6,30.11,NNW,332,2.7,5.8,36,0.00,,---,0.00,VWS V14.01,2013-03-04 21:41:00,
2013-03-04 14:44:00,22.3,-0.6,30.11,North,0,4.9,5.8,36,0.00,,---,0.00,VWS V14.01,2013-03-04 21:44:00,
2013-03-04 14:45:00,22.3,-0.6,30.11,North,2,4.9,4.9,36,0.00,,---,0.00,VWS V14.01,2013-03-04 21:45:00,
2013-03-04 14:46:00,22.3,-1.2,30.11,North,1,3.1,4.9,35,0.00,,---,0.00,VWS V14.01,2013-03-04 21:46:00,
2013-03-04 14:49:00,22.3,-0.6,30.11,NW,320,2.7,4.9,36,0.00,,---,0.00,VWS V14.01,2013-03-04 21:49:00,
2013-03-04 14:50:00,22.5,-0.4,30.11,NW,324,0.0,4.9,36,0.00,,---,0.00,VWS V14.01,2013-03-04 21:50:00,
2013-03-04 14:51:00,22.5,-0.4,30.11,NNW,341,0.0,4.9,36,0.00,,---,0.00,VWS V14.01,2013-03-04 21:51:00,
2013-03-04 14:54:00,22.8,-0.1,30.11,North,7,2.7,4.9,36,0.00,,---,0.00,VWS V14.01,2013-03-04 21:54:00,
2013-03-04 14:55:00,22.8,-0.1,30.11,NW,310,2.7,4.9,36,0.00,,---,0.00,VWS V14.01,2013-03-04 21:55:00,
2013-03-04 14:56:00,22.8,-0.1,30.11,NW,310,2.2,4.9,36,0.00,,---,0.00,VWS V14.01,2013-03-04 21:56:00,
2013-03-04 15:00:00,23.2,-0.4,30.11,North,2,4.9,5.8,35,0.00,,---,0.00,VWS V14.01,2013-03-04 22:00:00,
2013-03-04 15:01:00,23.5,-0.1,30.11,NNE,15,3.6,5.4,35,0.00,,---,0.00,VWS V14.01,2013-03-04 22:01:00,
2013-03-04 15:02:00,23.5,-0.1,30.11,NNE,16,2.7,5.4,35,0.00,,---,0.00,VWS V14.01,2013-03-04 22:02:00,
2013-03-04 15:05:00,23.5,-0.1,30.11,North,4,2.7,5.8,35,0.00,,---,0.00,VWS V14.01,2013-03-04 22:05:00,
2013-03-04 15:06:00,23.5,-0.7,30.11,NNE,12,4.9,5.8,34,0.00,,---,0.00,VWS V14.01,2013-03-04 22:06:00,
2013-03-04 15:07:00,23.5,-0.7,30.11,NNW,339,3.1,5.8,34,0.00,,---,0.00,VWS V14.01,2013-03-04 22:07:00,
2013-03-04 15:10:00,23.7,0.1,30.11,North,10,4.0,5.8,35,0.00,,---,0.00,VWS V14.01,2013-03-04 22:10:00,
2013-03-04 15:11:00,23.7,0.1,30.11,North,10,4.0,5.8,35,0.00,,---,0.00,VWS V14.01,2013-03-04 22:11:00,
2013-03-04 15:13:00,23.5,-0.7,30.11,NNW,338,2.7,5.8,34,0.00,,---,0.00,VWS V14.01,2013-03-04 22:13:00,
2013-03-04 15:15:00,23.0,-0.6,30.11,North,357,3.6,3.6,35,0.00,,---,0.00,VWS V14.01,2013-03-04 22:15:00,
2013-03-04 15:16:00,22.8,-0.7,30.11,North,2,3.1,3.6,35,0.00,,---,0.00,VWS V14.01,2013-03-04 22:16:00,
2013-03-04 15:18:00,22.5,-1.6,30.11,NNE,26,3.6,4.9,34,0.00,,---,0.00,VWS V14.01,2013-03-04 22:18:00,
2013-03-04 15:21:00,22.1,-2.0,30.11,NNE,27,3.6,4.9,34,0.00,,---,0.00,VWS V14.01,2013-03-04 22:21:00,
2013-03-04 15:23:00,21.9,-2.1,30.11,North,357,4.9,4.9,34,0.00,,---,0.00,VWS V14.01,2013-03-04 22:23:00,
2013-03-04 15:26:00,21.9,-1.5,30.11,North,6,2.2,4.9,35,0.00,,---,0.00,VWS V14.01,2013-03-04 22:26:00,
2013-03-04 15:28:00,22.3,-1.2,30.11,North,8,2.7,4.9,35,0.00,,---,0.00,VWS V14.01,2013-03-04 22:28:00,
2013-03-04 15:31:00,22.5,-1.6,30.11,NW,306,2.2,2.7,34,0.00,,---,0.00,VWS V14.01,2013-03-04 22:31:00,
2013-03-04 15:32:00,22.5,-1.6,30.11,NW,306,2.2,2.7,34,0.00,,---,0.00,VWS V14.01,2013-03-04 22:32:00,
2013-03-04 15:33:00,22.5,-1.6,30.11,NW,305,2.2,2.7,34,0.00,,---,0.00,VWS V14.01,2013-03-04 22:33:00,
2013-03-04 15:36:00,22.8,-0.7,30.11,SE,132,2.7,4.0,35,0.00,,---,0.00,VWS V14.01,2013-03-04 22:36:00,
2013-03-04 15:37:00,22.8,-0.7,30.11,SE,133,2.7,4.0,35,0.00,,---,0.00,VWS V14.01,2013-03-04 22:37:00,
2013-03-04 15:38:00,23.0,-0.6,30.11,ESE,104,2.2,4.0,35,0.00,,---,0.00,VWS V14.01,2013-03-04 22:38:00,
2013-03-04 15:41:00,23.4,-0.9,30.11,East,86,2.7,4.0,34,0.00,,---,0.00,VWS V14.01,2013-03-04 22:41:00,
2013-03-04 15:42:00,23.4,-0.9,30.11,East,94,3.1,4.0,34,0.00,,---,0.00,VWS V14.01,2013-03-04 22:42:00,
2013-03-04 15:44:00,23.5,-0.7,30.11,East,95,2.2,4.0,34,0.00,,---,0.00,VWS V14.01,2013-03-04 22:44:00,
2013-03-04 15:46:00,23.7,0.1,30.11,ESE,114,4.0,4.0,35,0.00,,---,0.00,VWS V14.01,2013-03-04 22:46:00,
2013-03-04 15:47:00,23.7,0.1,30.11,ESE,118,3.1,4.0,35,0.00,,---,0.00,VWS V14.01,2013-03-04 22:47:00,
2013-03-04 15:49:00,23.9,0.2,30.11,ESE,116,2.7,4.0,35,0.00,,---,0.00,VWS V14.01,2013-03-04 22:49:00,
2013-03-04 15:51:00,23.9,0.2,30.11,ESE,108,4.9,4.9,35,0.00,,---,0.00,VWS V14.01,2013-03-04 22:51:00,
2013-03-04 15:52:00,23.9,-0.4,30.11,ESE,112,3.1,4.9,34,0.00,,---,0.00,VWS V14.01,2013-03-04 22:52:00,
2013-03-04 15:54:00,23.7,-0.5,30.11,SE,144,2.7,4.9,34,0.00,,---,0.00,VWS V14.01,2013-03-04 22:54:00,
2013-03-04 15:57:00,23.7,-0.5,30.11,SE,124,2.7,4.9,34,0.00,,---,0.00,VWS V14.01,2013-03-04 22:57:00,
2013-03-04 15:59:00,23.7,-0.5,30.09,SE,136,2.2,4.9,34,0.00,,---,0.00,VWS V14.01,2013-03-04 22:59:00,
2013-03-04 16:02:00,23.5,-0.7,30.09,East,100,4.0,4.0,34,0.00,,---,0.00,VWS V14.01,2013-03-04 23:02:00,
2013-03-04 16:04:00,23.5,-0.7,30.09,ESE,102,3.1,4.0,34,0.00,,---,0.00,VWS V14.01,2013-03-04 23:04:00,
2013-03-04 16:07:00,23.4,-0.9,30.09,ESE,117,2.7,4.0,34,0.00,,---,0.00,VWS V14.01,2013-03-04 23:07:00,
2013-03-04 16:08:00,23.4,-0.9,30.09,ESE,117,2.7,4.0,34,0.00,,---,0.00,VWS V14.01,2013-03-04 23:08:00,
2013-03-04 16:09:00,23.2,-1.0,30.09,North,5,4.9,4.9,34,0.00,,---,0.00,VWS V14.01,2013-03-04 23:09:00,
2013-03-04 16:12:00,22.8,-1.3,30.09,North,3,2.7,4.9,34,0.00,,---,0.00,VWS V14.01,2013-03-04 23:12:00,
2013-03-04 16:13:00,22.8,-1.3,30.09,ESE,117,3.1,4.9,34,0.00,,---,0.00,VWS V14.01,2013-03-04 23:13:00,
2013-03-04 16:15:00,22.8,-1.3,30.09,SE,128,0.0,4.9,34,0.00,,---,0.00,VWS V14.01,2013-03-04 23:15:00,
2013-03-04 16:17:00,22.8,-1.3,30.09,SE,128,0.0,0.0,34,0.00,,---,0.00,VWS V14.01,2013-03-04 23:17:00,
2013-03-04 16:18:00,22.8,-1.3,30.09,SE,128,0.0,0.0,34,0.00,,---,0.00,VWS V14.01,2013-03-04 23:18:00,
2013-03-04 16:20:00,22.8,-0.7,30.09,East,87,0.0,2.7,35,0.00,,---,0.00,VWS V14.01,2013-03-04 23:20:00,
2013-03-04 16:22:00,22.6,-0.9,30.09,ENE,57,0.0,3.1,35,0.00,,---,0.00,VWS V14.01,2013-03-04 23:22:00,
2013-03-04 16:23:00,22.6,-0.9,30.09,ENE,59,0.0,3.1,35,0.00,,---,0.00,VWS V14.01,2013-03-04 23:23:00,
2013-03-04 16:25:00,22.8,-0.7,30.09,East,87,0.0,3.1,35,0.00,,---,0.00,VWS V14.01,2013-03-04 23:25:00,
2013-03-04 16:27:00,22.8,-0.7,30.09,East,93,0.0,3.1,35,0.00,,---,0.00,VWS V14.01,2013-03-04 23:27:00,
2013-03-04 16:28:00,22.8,-0.7,30.09,East,93,0.0,3.1,35,0.00,,---,0.00,VWS V14.01,2013-03-04 23:28:00,
2013-03-04 16:30:00,22.8,-0.7,30.09,ENE,59,2.7,3.6,35,0.00,,---,0.00,VWS V14.01,2013-03-04 23:30:00,
2013-03-04 16:32:00,22.8,-0.7,30.09,NNE,28,0.0,4.0,35,0.00,,---,0.00,VWS V14.01,2013-03-04 23:32:00,
2013-03-04 16:33:00,22.8,-0.7,30.09,NNE,19,3.6,4.0,35,0.00,,---,0.00,VWS V14.01,2013-03-04 23:33:00,
2013-03-04 16:35:00,22.8,-0.7,30.09,NNE,15,3.6,4.0,35,0.00,,---,0.00,VWS V14.01,2013-03-04 23:35:00,
2013-03-04 16:37:00,22.6,-0.9,30.09,North,5,0.0,4.0,35,0.00,,---,0.00,VWS V14.01,2013-03-04 23:37:00,
2013-03-04 16:38:00,22.6,-0.9,30.09,North,5,0.0,4.0,35,0.00,,---,0.00,VWS V14.01,2013-03-04 23:38:00,
2013-03-04 16:40:00,22.5,-1.0,30.09,SE,130,2.7,4.0,35,0.00,,---,0.00,VWS V14.01,2013-03-04 23:40:00,
2013-03-04 16:42:00,22.5,-1.0,30.09,ESE,116,3.1,4.0,35,0.00,,---,0.00,VWS V14.01,2013-03-04 23:42:00,
2013-03-04 16:43:00,22.5,-1.0,30.09,ESE,108,3.6,4.0,35,0.00,,---,0.00,VWS V14.01,2013-03-04 23:43:00,
2013-03-04 16:45:00,22.6,-0.9,30.09,ESE,105,4.0,4.0,35,0.00,,---,0.00,VWS V14.01,2013-03-04 23:45:00,
2013-03-04 16:47:00,22.6,-1.5,30.09,ESE,103,0.0,4.0,34,0.00,,---,0.00,VWS V14.01,2013-03-04 23:47:00,
2013-03-04 16:48:00,22.6,-1.5,30.09,ESE,103,0.0,4.0,34,0.00,,---,0.00,VWS V14.01,2013-03-04 23:48:00,
2013-03-04 16:49:00,22.6,-0.9,30.09,ESE,103,2.2,4.0,35,0.00,,---,0.00,VWS V14.01,2013-03-04 23:49:00,
2013-03-04 16:50:00,22.6,-1.5,30.09,North,5,2.7,4.9,34,0.00,,---,0.00,VWS V14.01,2013-03-04 23:50:00,
2013-03-04 16:53:00,22.6,-0.9,30.09,North,5,0.0,4.9,35,0.00,,---,0.00,VWS V14.01,2013-03-04 23:53:00,
2013-03-04 16:54:00,22.6,-0.9,30.09,North,5,2.7,4.9,35,0.00,,---,0.00,VWS V14.01,2013-03-04 23:54:00,
2013-03-04 16:55:00,22.5,-1.0,30.09,North,5,2.2,4.9,35,0.00,,---,0.00,VWS V14.01,2013-03-04 23:55:00,
2013-03-04 16:58:00,22.5,-1.0,30.09,ENE,64,0.0,4.9,35,0.00,,---,0.00,VWS V14.01,2013-03-04 23:58:00,
2013-03-04 16:59:00,22.5,-1.0,30.09,ESE,111,4.0,4.9,35,0.00,,---,0.00,VWS V14.01,2013-03-04 23:59:00,
2013-03-04 17:00:00,22.5,-1.0,30.09,ESE,110,0.0,0.0,35,0.00,,---,0.00,VWS V14.01,2013-03-05 00:00:00,
2013-03-04 17:03:00,22.3,-1.2,30.09,ESE,104,2.7,3.1,35,0.00,,---,0.00,VWS V14.01,2013-03-05 00:03:00,
2013-03-04 17:04:00,22.3,-1.2,30.09,ESE,105,3.6,3.6,35,0.00,,---,0.00,VWS V14.01,2013-03-05 00:04:00,
2013-03-04 17:06:00,22.3,-1.2,30.09,ESE,112,5.4,5.4,35,0.00,,---,0.00,VWS V14.01,2013-03-05 00:06:00,
2013-03-04 17:09:00,22.1,-1.4,30.09,ESE,123,2.7,5.4,35,0.00,,---,0.00,VWS V14.01,2013-03-05 00:09:00,
2013-03-04 17:11:00,21.9,-1.5,30.09,East,101,2.7,5.4,35,0.00,,---,0.00,VWS V14.01,2013-03-05 00:11:00,
2013-03-04 17:14:00,21.9,-1.5,30.09,East,93,2.2,5.4,35,0.00,,---,0.00,VWS V14.01,2013-03-05 00:14:00,
2013-03-04 17:15:00,21.9,-1.5,30.09,East,101,3.6,5.4,35,0.00,,---,0.00,VWS V14.01,2013-03-05 00:15:00,
2013-03-04 17:16:00,21.7,-1.7,30.09,ESE,102,0.0,3.6,35,0.00,,---,0.00,VWS V14.01,2013-03-05 00:16:00,
2013-03-04 17:19:00,21.7,-1.7,30.09,East,99,0.0,4.0,35,0.00,,---,0.00,VWS V14.01,2013-03-05 00:19:00,
2013-03-04 17:20:00,21.7,-1.7,30.09,East,100,2.7,4.0,35,0.00,,---,0.00,VWS V14.01,2013-03-05 00:20:00,
2013-03-04 17:21:00,21.6,-1.9,30.09,ESE,102,3.1,4.0,35,0.00,,---,0.00,VWS V14.01,2013-03-05 00:21:00,
2013-03-04 17:24:00,21.6,-1.9,30.09,ESE,112,0.0,4.0,35,0.00,,---,0.00,VWS V14.01,2013-03-05 00:24:00,
2013-03-04 17:25:00,21.6,-1.9,30.09,ESE,107,0.0,4.0,35,0.00,,---,0.00,VWS V14.01,2013-03-05 00:25:00,
2013-03-04 17:26:00,21.4,-2.0,30.09,ESE,106,3.1,4.0,35,0.00,,---,0.00,VWS V14.01,2013-03-05 00:26:00,
2013-03-04 17:29:00,21.4,-2.0,30.09,East,101,0.0,4.0,35,0.00,,---,0.00,VWS V14.01,2013-03-05 00:29:00,
2013-03-04 17:31:00,21.2,-2.2,30.09,East,101,0.0,2.7,35,0.00,,---,0.00,VWS V14.01,2013-03-05 00:31:00,
2013-03-04 17:34:00,21.2,-1.6,30.09,East,98,2.2,3.6,36,0.00,,---,0.00,VWS V14.01,2013-03-05 00:34:00,
2013-03-04 17:36:00,21.2,-2.2,30.09,East,98,0.0,3.6,35,0.00,,---,0.00,VWS V14.01,2013-03-05 00:36:00,
2013-03-04 17:37:00,21.2,-1.6,30.09,East,98,0.0,3.6,36,0.00,,---,0.00,VWS V14.01,2013-03-05 00:37:00,
2013-03-04 17:39:00,21.2,-2.2,30.09,East,91,0.0,3.6,35,0.00,,---,0.00,VWS V14.01,2013-03-05 00:39:00,
2013-03-04 17:40:00,21.2,-2.2,30.09,East,91,0.0,3.6,35,0.00,,---,0.00,VWS V14.01,2013-03-05 00:40:00,
2013-03-04 17:44:00,21.2,-2.2,30.09,East,90,2.2,2.2,35,0.00,,---,0.00,VWS V14.01,2013-03-05 00:44:00,
2013-03-04 17:45:00,21.2,-2.2,30.09,East,90,2.2,2.7,35,0.00,,---,0.00,VWS V14.01,2013-03-05 00:45:00,
2013-03-04 17:49:00,21.2,-2.2,30.09,East,90,0.0,2.2,35,0.00,,---,0.00,VWS V14.01,2013-03-05 00:49:00,
2013-03-04 17:50:00,21.2,-2.2,30.09,East,90,0.0,2.2,35,0.00,,---,0.00,VWS V14.01,2013-03-05 00:50:00,
2013-03-04 17:54:00,21.0,-2.3,30.09,East,83,2.7,3.1,35,0.00,,---,0.00,VWS V14.01,2013-03-05 00:54:00,
2013-03-04 17:55:00,20.8,-2.5,30.09,North,0,4.0,4.0,35,0.00,,---,0.00,VWS V14.01,2013-03-05 00:55:00,
2013-03-04 17:56:00,20.8,-2.5,30.09,North,2,2.2,4.9,35,0.00,,---,0.00,VWS V14.01,2013-03-05 00:56:00,
2013-03-04 17:59:00,20.8,-2.5,30.09,North,1,2.7,4.9,35,0.00,,---,0.00,VWS V14.01,2013-03-05 00:59:00,
2013-03-04 18:00:00,20.8,-2.5,30.09,North,1,2.7,2.7,35,0.00,,---,0.00,VWS V14.01,2013-03-05 01:00:00,
2013-03-04 18:01:00,20.8,-2.5,30.09,North,3,2.7,2.7,35,0.00,,---,0.00,VWS V14.01,2013-03-05 01:01:00,
2013-03-04 18:04:00,20.7,-2.7,30.09,North,3,0.0,2.7,35,0.00,,---,0.00,VWS V14.01,2013-03-05 01:04:00,
2013-03-04 18:05:00,20.5,-2.8,30.09,North,3,0.0,2.7,35,0.00,,---,0.00,VWS V14.01,2013-03-05 01:05:00,
2013-03-04 18:06:00,20.5,-2.8,30.09,North,3,0.0,2.7,35,0.00,,---,0.00,VWS V14.01,2013-03-05 01:06:00,
2013-03-04 18:10:00,20.1,-3.1,30.09,North,3,0.0,2.7,35,0.00,,---,0.00,VWS V14.01,2013-03-05 01:10:00,
2013-03-04 18:11:00,20.1,-2.5,30.09,North,3,0.0,2.7,36,0.00,,---,0.00,VWS V14.01,2013-03-05 01:11:00,
2013-03-04 18:15:00,19.9,-2.7,30.09,North,3,0.0,2.7,36,0.00,,---,0.00,VWS V14.01,2013-03-05 01:15:00,
2013-03-04 18:16:00,19.9,-2.7,30.09,North,3,0.0,2.7,36,0.00,,---,0.00,VWS V14.01,2013-03-05 01:16:00,
2013-03-04 18:17:00,19.9,-2.7,30.09,North,3,2.7,2.7,36,0.00,,---,0.00,VWS V14.01,2013-03-05 01:17:00,
2013-03-04 18:20:00,19.8,-2.9,30.09,North,3,0.0,2.7,36,0.00,,---,0.00,VWS V14.01,2013-03-05 01:20:00,
2013-03-04 18:21:00,19.8,-2.9,30.09,North,3,0.0,2.7,36,0.00,,---,0.00,VWS V14.01,2013-03-05 01:21:00,
2013-03-04 18:22:00,19.8,-2.9,30.09,North,3,0.0,2.7,36,0.00,,---,0.00,VWS V14.01,2013-03-05 01:22:00,
2013-03-04 18:26:00,19.4,-3.2,30.09,North,3,0.0,2.7,36,0.00,,---,0.00,VWS V14.01,2013-03-05 01:26:00,
2013-03-04 18:27:00,19.2,-3.3,30.09,North,3,0.0,2.7,36,0.00,,---,0.00,VWS V14.01,2013-03-05 01:27:00,
2013-03-04 18:31:00,18.7,-3.3,30.09,North,3,0.0,0.0,37,0.00,,---,0.00,VWS V14.01,2013-03-05 01:31:00,
2013-03-04 18:32:00,18.7,-3.3,30.09,North,3,0.0,0.0,37,0.00,,---,0.00,VWS V14.01,2013-03-05 01:32:00,
2013-03-04 18:36:00,18.3,-3.6,30.09,North,3,0.0,0.0,37,0.00,,---,0.00,VWS V14.01,2013-03-05 01:36:00,
2013-03-04 18:37:00,18.1,-3.7,30.09,North,3,0.0,0.0,37,0.00,,---,0.00,VWS V14.01,2013-03-05 01:37:00,
2013-03-04 18:41:00,18.0,-3.3,30.09,North,3,0.0,0.0,38,0.00,,---,0.00,VWS V14.01,2013-03-05 01:41:00,
2013-03-04 18:42:00,17.8,-3.5,30.09,North,3,0.0,0.0,38,0.00,,---,0.00,VWS V14.01,2013-03-05 01:42:00,
2013-03-04 18:46:00,17.6,-3.7,30.09,North,3,2.7,2.7,38,0.00,,---,0.00,VWS V14.01,2013-03-05 01:46:00,
2013-03-04 18:47:00,17.6,-3.1,30.09,North,3,2.2,2.7,39,0.00,,---,0.00,VWS V14.01,2013-03-05 01:47:00,
2013-03-04 18:51:00,17.4,-3.3,30.09,NNW,329,3.1,4.0,39,0.00,,---,0.00,VWS V14.01,2013-03-05 01:51:00,
2013-03-04 18:52:00,17.4,-3.3,30.09,NNW,328,3.1,4.0,39,0.00,,---,0.00,VWS V14.01,2013-03-05 01:52:00,
2013-03-04 18:53:00,17.4,-3.3,30.09,NNW,328,3.1,4.0,39,0.00,,---,0.00,VWS V14.01,2013-03-05 01:53:00,
2013-03-04 18:56:00,17.4,-2.8,30.09,WNW,298,4.5,4.5,40,0.00,,---,0.00,VWS V14.01,2013-03-05 01:56:00,
2013-03-04 18:57:00,17.4,-2.2,30.09,WNW,298,4.0,4.9,41,0.00,,---,0.00,VWS V14.01,2013-03-05 01:57:00,
2013-03-04 18:58:00,17.4,-2.2,30.09,WNW,297,3.6,4.9,41,0.00,,---,0.00,VWS V14.01,2013-03-05 01:58:00,
2013-03-04 19:01:00,17.4,-1.7,30.11,SSW,197,4.0,4.0,42,0.00,,---,0.00,VWS V14.01,2013-03-05 02:01:00,
2013-03-04 19:02:00,17.4,-1.7,30.11,SSW,202,3.6,4.0,42,0.00,,---,0.00,VWS V14.01,2013-03-05 02:02:00,
2013-03-04 19:03:00,17.4,-1.7,30.11,SSW,197,4.0,4.0,42,0.00,,---,0.00,VWS V14.01,2013-03-05 02:03:00,
2013-03-04 19:04:00,17.4,-1.2,30.11,SSW,203,3.6,4.0,43,0.00,,---,0.00,VWS V14.01,2013-03-05 02:04:00,
2013-03-04 19:06:00,17.2,-1.4,30.11,SSW,203,3.6,4.9,43,0.00,,---,0.00,VWS V14.01,2013-03-05 02:06:00,
2013-03-04 19:07:00,17.2,-1.4,30.11,SSW,206,3.6,4.9,43,0.00,,---,0.00,VWS V14.01,2013-03-05 02:07:00,
2013-03-04 19:08:00,17.1,-1.6,30.11,SSW,205,3.6,4.9,43,0.00,,---,0.00,VWS V14.01,2013-03-05 02:08:00,
2013-03-04 19:09:00,17.1,-1.6,30.11,SSW,202,4.0,4.9,43,0.00,,---,0.00,VWS V14.01,2013-03-05 02:09:00,
2013-03-04 19:12:00,17.1,-1.1,30.11,SSW,203,4.0,4.9,44,0.00,,---,0.00,VWS V14.01,2013-03-05 02:12:00,
2013-03-04 19:13:00,17.1,-1.1,30.11,South,185,3.1,4.9,44,0.00,,---,0.00,VWS V14.01,2013-03-05 02:13:00,
2013-03-04 19:15:00,17.1,-1.1,30.11,SSW,194,4.9,4.9,44,0.00,,---,0.00,VWS V14.01,2013-03-05 02:15:00,
2013-03-04 19:17:00,17.1,-1.1,30.11,SSW,192,4.0,5.4,44,0.00,,---,0.00,VWS V14.01,2013-03-05 02:17:00,
2013-03-04 19:18:00,16.9,-1.2,30.11,SSW,193,4.5,5.4,44,0.00,,---,0.00,VWS V14.01,2013-03-05 02:18:00,
2013-03-04 19:20:00,16.9,-1.2,30.11,SSW,193,3.1,5.4,44,0.00,,---,0.00,VWS V14.01,2013-03-05 02:20:00,
2013-03-04 19:22:00,16.7,-1.4,30.11,SSW,199,3.6,5.4,44,0.00,,---,0.00,VWS V14.01,2013-03-05 02:22:00,
2013-03-04 19:23:00,16.7,-1.4,30.11,SSW,197,3.6,5.4,44,0.00,,---,0.00,VWS V14.01,2013-03-05 02:23:00,
2013-03-04 19:25:00,16.5,-1.6,30.11,South,189,3.1,5.4,44,0.00,,---,0.00,VWS V14.01,2013-03-05 02:25:00,
2013-03-04 19:27:00,16.5,-1.6,30.11,South,187,3.1,5.4,44,0.00,,---,0.00,VWS V14.01,2013-03-05 02:27:00,
2013-03-04 19:28:00,16.3,-1.7,30.11,SSW,192,3.6,5.4,44,0.00,,---,0.00,VWS V14.01,2013-03-05 02:28:00,
2013-03-04 19:30:00,16.2,-1.9,30.11,SSW,196,4.0,4.0,44,0.00,,---,0.00,VWS V14.01,2013-03-05 02:30:00,
2013-03-04 19:32:00,16.2,-1.9,30.11,SSW,197,4.0,4.0,44,0.00,,---,0.00,VWS V14.01,2013-03-05 02:32:00,
2013-03-04 19:33:00,16.0,-2.1,30.11,SSW,199,3.6,4.0,44,0.00,,---,0.00,VWS V14.01,2013-03-05 02:33:00,
2013-03-04 19:36:00,15.8,-1.8,30.11,SSW,198,3.6,4.0,45,0.00,,---,0.00,VWS V14.01,2013-03-05 02:36:00,
2013-03-04 19:38:00,15.8,-1.8,30.11,SSW,198,4.0,4.0,45,0.00,,---,0.00,VWS V14.01,2013-03-05 02:38:00,
2013-03-04 19:39:00,15.8,-1.8,30.11,SSW,198,3.6,4.0,45,0.00,,---,0.00,VWS V14.01,2013-03-05 02:39:00,
2013-03-04 19:42:00,15.6,-1.9,30.11,SSW,200,2.7,4.0,45,0.00,,---,0.00,VWS V14.01,2013-03-05 02:42:00,
2013-03-04 19:43:00,15.6,-1.9,30.11,SSW,199,4.0,4.0,45,0.00,,---,0.00,VWS V14.01,2013-03-05 02:43:00,
2013-03-04 19:44:00,15.6,-1.9,30.11,SSW,195,3.1,4.0,45,0.00,,---,0.00,VWS V14.01,2013-03-05 02:44:00,
2013-03-04 19:47:00,15.6,-1.9,30.11,SSW,193,4.0,4.5,45,0.00,,---,0.00,VWS V14.01,2013-03-05 02:47:00,
2013-03-04 19:48:00,15.4,-2.1,30.11,SSW,197,4.0,4.9,45,0.00,,---,0.00,VWS V14.01,2013-03-05 02:48:00,
2013-03-04 19:49:00,15.4,-2.1,30.11,South,186,3.6,4.9,45,0.00,,---,0.00,VWS V14.01,2013-03-05 02:49:00,
2013-03-04 19:50:00,15.4,-2.1,30.11,South,189,4.0,4.9,45,0.00,,---,0.00,VWS V14.01,2013-03-05 02:50:00,
2013-03-04 19:52:00,15.4,-2.1,30.11,SSW,196,4.0,4.9,45,0.00,,---,0.00,VWS V14.01,2013-03-05 02:52:00,
2013-03-04 19:54:00,15.4,-2.1,30.11,South,191,3.6,4.9,45,0.00,,---,0.00,VWS V14.01,2013-03-05 02:54:00,
2013-03-04 19:55:00,15.4,-2.1,30.11,South,189,3.1,4.9,45,0.00,,---,0.00,VWS V14.01,2013-03-05 02:55:00,
2013-03-04 19:57:00,15.4,-2.1,30.11,South,183,3.6,4.9,45,0.00,,---,0.00,VWS V14.01,2013-03-05 02:57:00,
2013-03-04 19:59:00,15.3,-2.3,30.11,South,185,3.6,4.9,45,0.00,,---,0.00,VWS V14.01,2013-03-05 02:59:00,
2013-03-04 20:00:00,15.3,-2.3,30.11,South,190,3.1,3.1,45,0.00,,---,0.00,VWS V14.01,2013-03-05 03:00:00,
2013-03-04 20:02:00,14.9,-2.6,30.11,South,178,2.7,3.6,45,0.00,,---,0.00,VWS V14.01,2013-03-05 03:02:00,
2013-03-04 20:04:00,14.7,-2.8,30.11,South,190,2.7,4.0,45,0.00,,---,0.00,VWS V14.01,2013-03-05 03:04:00,
2013-03-04 20:05:00,14.5,-2.9,30.11,South,188,3.6,4.0,45,0.00,,---,0.00,VWS V14.01,2013-03-05 03:05:00,
2013-03-04 20:07:00,14.4,-3.1,30.11,SSW,193,3.6,4.0,45,0.00,,---,0.00,VWS V14.01,2013-03-05 03:07:00,
2013-03-04 20:09:00,14.2,-2.8,30.11,SSW,199,4.9,4.9,46,0.00,,---,0.00,VWS V14.01,2013-03-05 03:09:00,
2013-03-04 20:10:00,14.0,-3.0,30.11,SSW,199,4.5,4.9,46,0.00,,---,0.00,VWS V14.01,2013-03-05 03:10:00,
2013-03-04 20:13:00,13.6,-3.3,30.11,SSW,194,4.9,5.8,46,0.00,,---,0.00,VWS V14.01,2013-03-05 03:13:00,
2013-03-04 20:14:00,13.6,-3.3,30.09,South,188,5.4,5.8,46,0.00,,---,0.00,VWS V14.01,2013-03-05 03:14:00,
2013-03-04 20:15:00,13.6,-3.3,30.09,South,191,6.3,6.3,46,0.00,,---,0.00,VWS V14.01,2013-03-05 03:15:00,
2013-03-04 20:18:00,13.5,-3.5,30.09,SSW,208,8.3,8.3,46,0.00,,---,0.00,VWS V14.01,2013-03-05 03:18:00,
2013-03-04 20:19:00,13.5,-3.5,30.09,SSW,196,5.8,8.3,46,0.00,,---,0.00,VWS V14.01,2013-03-05 03:19:00,
2013-03-04 20:20:00,13.3,-3.6,30.09,SSW,196,7.2,8.3,46,0.00,,---,0.00,VWS V14.01,2013-03-05 03:20:00,
2013-03-04 20:21:00,13.3,-3.6,30.09,SSW,196,7.2,8.3,46,0.00,,---,0.00,VWS V14.01,2013-03-05 03:21:00,
2013-03-04 20:23:00,13.3,-3.6,30.09,SSW,195,8.3,8.3,46,0.00,,---,0.00,VWS V14.01,2013-03-05 03:23:00,
2013-03-04 20:24:00,13.1,-3.8,30.09,South,188,4.9,8.3,46,0.00,,---,0.00,VWS V14.01,2013-03-05 03:24:00,
2013-03-04 20:25:00,13.1,-3.8,30.09,SSW,194,6.3,8.3,46,0.00,,---,0.00,VWS V14.01,2013-03-05 03:25:00,
2013-03-04 20:26:00,13.1,-3.8,30.09,SSW,194,6.3,8.3,46,0.00,,---,0.00,VWS V14.01,2013-03-05 03:26:00,
2013-03-04 20:28:00,13.3,-3.6,30.09,SSW,197,5.4,8.3,46,0.00,,---,0.00,VWS V14.01,2013-03-05 03:28:00,
2013-03-04 20:30:00,13.3,-3.6,30.09,SSW,196,6.3,8.3,46,0.00,,---,0.00,VWS V14.01,2013-03-05 03:30:00,
2013-03-04 20:31:00,13.3,-3.6,30.09,SSW,193,5.8,6.3,46,0.00,,---,0.00,VWS V14.01,2013-03-05 03:31:00,
2013-03-04 20:33:00,13.5,-3.5,30.09,SSW,203,6.3,6.3,46,0.00,,---,0.00,VWS V14.01,2013-03-05 03:33:00,
2013-03-04 20:35:00,13.5,-3.5,30.09,SSW,194,5.4,6.3,46,0.00,,---,0.00,VWS V14.01,2013-03-05 03:35:00,
2013-03-04 20:36:00,13.3,-3.6,30.09,SSW,194,4.5,6.3,46,0.00,,---,0.00,VWS V14.01,2013-03-05 03:36:00,
2013-03-04 20:39:00,13.3,-3.6,30.09,SSW,196,5.4,6.3,46,0.00,,---,0.00,VWS V14.01,2013-03-05 03:39:00,
2013-03-04 20:40:00,13.3,-3.6,30.09,SSW,193,5.8,6.3,46,0.00,,---,0.00,VWS V14.01,2013-03-05 03:40:00,
2013-03-04 20:41:00,13.3,-3.6,30.09,SSW,201,6.3,6.3,46,0.00,,---,0.00,VWS V14.01,2013-03-05 03:41:00,
2013-03-04 20:44:00,12.9,-4.0,30.09,SSW,207,6.3,7.6,46,0.00,,---,0.00,VWS V14.01,2013-03-05 03:44:00,
2013-03-04 20:45:00,12.9,-4.0,30.09,SSW,195,5.4,6.3,46,0.00,,---,0.00,VWS V14.01,2013-03-05 03:45:00,
2013-03-04 20:46:00,12.9,-4.0,30.09,South,182,5.8,6.3,46,0.00,,---,0.00,VWS V14.01,2013-03-05 03:46:00,
2013-03-04 20:49:00,12.9,-4.0,30.09,SSW,195,5.4,7.6,46,0.00,,---,0.00,VWS V14.01,2013-03-05 03:49:00,
2013-03-04 20:50:00,12.7,-4.1,30.09,SSW,194,3.6,7.6,46,0.00,,---,0.00,VWS V14.01,2013-03-05 03:50:00,
2013-03-04 20:51:00,12.7,-4.1,30.09,SSW,196,5.4,7.6,46,0.00,,---,0.00,VWS V14.01,2013-03-05 03:51:00,
2013-03-04 20:54:00,12.6,-4.3,30.09,SSW,192,6.3,7.6,46,0.00,,---,0.00,VWS V14.01,2013-03-05 03:54:00,
2013-03-04 20:55:00,12.6,-4.3,30.09,SSW,194,4.9,7.6,46,0.00,,---,0.00,VWS V14.01,2013-03-05 03:55:00,
2013-03-04 20:56:00,12.6,-4.3,30.09,SSW,196,6.3,7.6,46,0.00,,---,0.00,VWS V14.01,2013-03-05 03:56:00,
2013-03-04 20:59:00,12.6,-4.3,30.09,SSW,192,5.8,7.6,46,0.00,,---,0.00,VWS V14.01,2013-03-05 03:59:00,
2013-03-04 21:01:00,12.7,-4.1,30.09,SSW,193,5.4,7.6,46,0.00,,---,0.00,VWS V14.01,2013-03-05 04:01:00,
2013-03-04 21:02:00,12.7,-4.1,30.09,SSW,197,5.8,8.3,46,0.00,,---,0.00,VWS V14.01,2013-03-05 04:02:00,
2013-03-04 21:05:00,12.7,-4.1,30.09,SSW,197,5.4,8.3,46,0.00,,---,0.00,VWS V14.01,2013-03-05 04:05:00,
2013-03-04 21:06:00,12.7,-4.1,30.09,SSW,200,5.4,8.3,46,0.00,,---,0.00,VWS V14.01,2013-03-05 04:06:00,
2013-03-04 21:07:00,12.7,-4.1,30.09,SSW,197,4.0,8.3,46,0.00,,---,0.00,VWS V14.01,2013-03-05 04:07:00,
2013-03-04 21:10:00,12.6,-4.3,30.09,South,191,5.8,8.3,46,0.00,,---,0.00,VWS V14.01,2013-03-05 04:10:00,
2013-03-04 21:11:00,12.7,-4.1,30.09,SSW,195,5.8,8.3,46,0.00,,---,0.00,VWS V14.01,2013-03-05 04:11:00,
2013-03-04 21:12:00,12.7,-4.1,30.09,SSW,195,6.3,8.3,46,0.00,,---,0.00,VWS V14.01,2013-03-05 04:12:00,
2013-03-04 21:15:00,12.7,-4.1,30.09,SSW,193,3.6,3.6,46,0.00,,---,0.00,VWS V14.01,2013-03-05 04:15:00,
2013-03-04 21:16:00,12.7,-4.1,30.09,SSW,194,5.4,5.4,46,0.00,,---,0.00,VWS V14.01,2013-03-05 04:16:00,
2013-03-04 21:17:00,12.7,-4.1,30.09,SSW,198,5.4,5.4,46,0.00,,---,0.00,VWS V14.01,2013-03-05 04:17:00,
2013-03-04 21:20:00,12.6,-4.3,30.09,SSW,195,5.4,6.3,46,0.00,,---,0.00,VWS V14.01,2013-03-05 04:20:00,
2013-03-04 21:21:00,12.6,-4.3,30.09,SSW,197,7.6,7.6,46,0.00,,---,0.00,VWS V14.01,2013-03-05 04:21:00,
2013-03-04 21:22:00,12.6,-4.3,30.09,SSW,195,5.4,8.1,46,0.00,,---,0.00,VWS V14.01,2013-03-05 04:22:00,
2013-03-04 21:25:00,12.4,-4.4,30.09,SSW,192,5.4,8.1,46,0.00,,---,0.00,VWS V14.01,2013-03-05 04:25:00,
2013-03-04 21:26:00,12.4,-4.4,30.09,SSW,195,4.9,8.1,46,0.00,,---,0.00,VWS V14.01,2013-03-05 04:26:00,
2013-03-04 21:27:00,12.2,-4.6,30.09,SSW,193,5.4,8.1,46,0.00,,---,0.00,VWS V14.01,2013-03-05 04:27:00,
2013-03-04 21:31:00,12.2,-4.6,30.06,SSW,197,6.3,6.3,46,0.00,,---,0.00,VWS V14.01,2013-03-05 04:31:00,
2013-03-04 21:32:00,12.2,-4.6,30.06,SSW,196,6.7,7.6,46,0.00,,---,0.00,VWS V14.01,2013-03-05 04:32:00,
2013-03-04 21:36:00,12.2,-4.6,30.06,SSW,198,8.1,8.3,46,0.00,,---,0.00,VWS V14.01,2013-03-05 04:36:00,
2013-03-04 21:37:00,12.2,-4.6,30.06,SSW,192,8.3,8.3,46,0.00,,---,0.00,VWS V14.01,2013-03-05 04:37:00,
2013-03-04 21:41:00,12.0,-4.8,30.06,SSW,194,5.8,8.3,46,0.00,,---,0.00,VWS V14.01,2013-03-05 04:41:00,
2013-03-04 21:42:00,12.0,-4.8,30.06,SSW,195,5.4,8.3,46,0.00,,---,0.00,VWS V14.01,2013-03-05 04:42:00,
2013-03-04 21:46:00,12.2,-4.6,30.09,SSW,195,5.4,8.7,46,0.00,,---,0.00,VWS V14.01,2013-03-05 04:46:00,
2013-03-04 21:47:00,12.2,-4.6,30.09,South,189,6.3,8.7,46,0.00,,---,0.00,VWS V14.01,2013-03-05 04:47:00,
2013-03-04 21:51:00,12.0,-4.8,30.09,SSW,197,4.0,8.7,46,0.00,,---,0.00,VWS V14.01,2013-03-05 04:51:00,
2013-03-04 21:52:00,12.0,-4.8,30.09,South,189,4.9,8.7,46,0.00,,---,0.00,VWS V14.01,2013-03-05 04:52:00,
2013-03-04 21:56:00,11.8,-4.9,30.09,SSW,195,7.2,8.7,46,0.00,,---,0.00,VWS V14.01,2013-03-05 04:56:00,
2013-03-04 21:57:00,11.7,-5.1,30.09,SSW,195,6.3,8.7,46,0.00,,---,0.00,VWS V14.01,2013-03-05 04:57:00,
2013-03-04 21:58:00,11.7,-5.1,30.09,SSW,193,4.5,8.7,46,0.00,,---,0.00,VWS V14.01,2013-03-05 04:58:00,
2013-03-04 22:00:00,11.7,-5.1,30.09,SSW,198,8.7,8.7,46,0.00,,---,0.00,VWS V14.01,2013-03-05 05:00:00,
2013-03-04 22:05:00,11.5,-5.3,30.09,SSW,194,4.9,6.3,46,0.00,,---,0.00,VWS V14.01,2013-03-05 05:05:00,
2013-03-04 22:10:00,11.7,-5.1,30.09,SSW,199,3.6,6.3,46,0.00,,---,0.00,VWS V14.01,2013-03-05 05:10:00,
2013-03-04 22:15:00,11.7,-5.1,30.06,SSW,196,3.6,3.6,46,0.00,,---,0.00,VWS V14.01,2013-03-05 05:15:00,
2013-03-04 22:16:00,11.7,-5.1,30.06,SSW,196,4.9,5.4,46,0.00,,---,0.00,VWS V14.01,2013-03-05 05:16:00,
2013-03-04 22:20:00,11.5,-5.3,30.06,South,190,5.8,5.8,46,0.00,,---,0.00,VWS V14.01,2013-03-05 05:20:00,
2013-03-04 22:21:00,11.5,-5.3,30.06,SSW,197,4.0,5.8,46,0.00,,---,0.00,VWS V14.01,2013-03-05 05:21:00,
2013-03-04 22:25:00,11.3,-5.4,30.06,SSW,196,3.6,5.8,46,0.00,,---,0.00,VWS V14.01,2013-03-05 05:25:00,
2013-03-04 22:26:00,11.3,-5.4,30.06,SSW,196,3.6,5.8,46,0.00,,---,0.00,VWS V14.01,2013-03-05 05:26:00,
2013-03-04 22:30:00,11.3,-5.4,30.06,SSW,197,4.0,4.9,46,0.00,,---,0.00,VWS V14.01,2013-03-05 05:30:00,
2013-03-04 22:31:00,11.3,-5.4,30.06,SSW,196,4.9,5.8,46,0.00,,---,0.00,VWS V14.01,2013-03-05 05:31:00,
2013-03-04 22:35:00,11.3,-5.4,30.06,SSW,196,4.0,5.8,46,0.00,,---,0.00,VWS V14.01,2013-03-05 05:35:00,
2013-03-04 22:36:00,11.3,-5.4,30.06,SSW,196,3.1,5.8,46,0.00,,---,0.00,VWS V14.01,2013-03-05 05:36:00,
2013-03-04 22:40:00,11.3,-5.4,30.06,SSW,196,4.9,5.8,46,0.00,,---,0.00,VWS V14.01,2013-03-05 05:40:00,
2013-03-04 22:41:00,11.3,-5.4,30.06,SSW,201,4.0,5.8,46,0.00,,---,0.00,VWS V14.01,2013-03-05 05:41:00,
2013-03-04 22:45:00,11.3,-5.4,30.06,SSW,194,4.0,4.0,46,0.00,,---,0.00,VWS V14.01,2013-03-05 05:45:00,
2013-03-04 22:46:00,11.3,-5.4,30.06,SSW,192,2.7,4.0,46,0.00,,---,0.00,VWS V14.01,2013-03-05 05:46:00,
2013-03-04 22:50:00,11.1,-5.6,30.06,South,187,3.1,4.0,46,0.00,,---,0.00,VWS V14.01,2013-03-05 05:50:00,
2013-03-04 22:51:00,11.1,-5.6,30.06,SSW,193,6.3,6.3,46,0.00,,---,0.00,VWS V14.01,2013-03-05 05:51:00,
2013-03-04 22:52:00,10.9,-5.8,30.06,SSW,193,6.3,6.3,46,0.00,,---,0.00,VWS V14.01,2013-03-05 05:52:00,
2013-03-04 22:55:00,10.9,-5.8,30.06,SSW,200,6.3,6.3,46,0.00,,---,0.00,VWS V14.01,2013-03-05 05:55:00,
2013-03-04 22:56:00,10.9,-5.8,30.06,SSW,193,4.0,6.3,46,0.00,,---,0.00,VWS V14.01,2013-03-05 05:56:00,
2013-03-04 22:57:00,10.9,-5.8,30.06,SSW,194,5.8,6.3,46,0.00,,---,0.00,VWS V14.01,2013-03-05 05:57:00,
2013-03-04 23:00:00,10.8,-5.9,30.06,SSW,193,6.3,6.3,46,0.00,,---,0.00,VWS V14.01,2013-03-05 06:00:00,
2013-03-04 23:01:00,10.8,-5.9,30.06,SSW,195,4.5,6.3,46,0.00,,---,0.00,VWS V14.01,2013-03-05 06:01:00,
2013-03-04 23:02:00,10.8,-5.9,30.06,SSW,199,5.4,6.3,46,0.00,,---,0.00,VWS V14.01,2013-03-05 06:02:00,
2013-03-04 23:06:00,10.9,-5.8,30.06,SSW,200,3.6,6.3,46,0.00,,---,0.00,VWS V14.01,2013-03-05 06:06:00,
2013-03-04 23:07:00,10.8,-5.9,30.06,SSW,198,5.4,6.3,46,0.00,,---,0.00,VWS V14.01,2013-03-05 06:07:00,
2013-03-04 23:11:00,10.9,-5.8,30.06,SSW,194,4.9,6.3,46,0.00,,---,0.00,VWS V14.01,2013-03-05 06:11:00,
2013-03-04 23:12:00,10.9,-5.8,30.06,SSW,198,5.4,6.3,46,0.00,,---,0.00,VWS V14.01,2013-03-05 06:12:00,
2013-03-04 23:16:00,10.9,-5.8,30.09,South,186,3.1,5.8,46,0.00,,---,0.00,VWS V14.01,2013-03-05 06:16:00,
2013-03-04 23:17:00,10.9,-5.8,30.09,South,185,3.1,5.8,46,0.00,,---,0.00,VWS V14.01,2013-03-05 06:17:00,
2013-03-04 23:21:00,11.1,-5.6,30.09,South,191,4.0,5.8,46,0.00,,---,0.00,VWS V14.01,2013-03-05 06:21:00,
2013-03-04 23:22:00,11.1,-5.6,30.09,SSW,195,4.0,5.8,46,0.00,,---,0.00,VWS V14.01,2013-03-05 06:22:00,
2013-03-04 23:23:00,11.1,-5.6,30.09,SSW,193,4.9,5.8,46,0.00,,---,0.00,VWS V14.01,2013-03-05 06:23:00,
2013-03-04 23:26:00,11.3,-5.4,30.09,South,190,3.6,5.8,46,0.00,,---,0.00,VWS V14.01,2013-03-05 06:26:00,
2013-03-04 23:27:00,11.3,-5.4,30.09,South,190,3.6,5.8,46,0.00,,---,0.00,VWS V14.01,2013-03-05 06:27:00,
2013-03-04 23:28:00,11.3,-5.4,30.09,South,191,4.0,5.8,46,0.00,,---,0.00,VWS V14.01,2013-03-05 06:28:00,
2013-03-04 23:31:00,11.5,-5.3,30.06,SSW,192,3.6,4.0,46,0.00,,---,0.00,VWS V14.01,2013-03-05 06:31:00,
2013-03-04 23:32:00,11.7,-5.1,30.06,SSW,192,3.1,4.0,46,0.00,,---,0.00,VWS V14.01,2013-03-05 06:32:00,
2013-03-04 23:33:00,11.7,-5.1,30.06,South,191,2.7,4.0,46,0.00,,---,0.00,VWS V14.01,2013-03-05 06:33:00,
2013-03-04 23:36:00,11.8,-4.9,30.06,SSW,194,2.7,4.0,46,0.00,,---,0.00,VWS V14.01,2013-03-05 06:36:00,
2013-03-04 23:37:00,11.8,-4.9,30.06,SSW,194,2.7,4.0,46,0.00,,---,0.00,VWS V14.01,2013-03-05 06:37:00,
2013-03-04 23:38:00,11.8,-4.9,30.06,SSW,193,2.7,4.0,46,0.00,,---,0.00,VWS V14.01,2013-03-05 06:38:00,
2013-03-04 23:41:00,11.7,-5.1,30.06,South,190,2.7,4.0,46,0.00,,---,0.00,VWS V14.01,2013-03-05 06:41:00,
2013-03-04 23:42:00,11.7,-5.1,30.06,South,190,2.7,4.0,46,0.00,,---,0.00,VWS V14.01,2013-03-05 06:42:00,
2013-03-04 23:43:00,11.7,-5.1,30.06,South,189,2.7,4.0,46,0.00,,---,0.00,VWS V14.01,2013-03-05 06:43:00,
2013-03-04 23:46:00,11.3,-5.4,30.06,South,188,2.2,2.7,46,0.00,,---,0.00,VWS V14.01,2013-03-05 06:46:00,
2013-03-04 23:47:00,11.3,-5.4,30.06,South,189,2.2,2.7,46,0.00,,---,0.00,VWS V14.01,2013-03-05 06:47:00,
2013-03-04 23:48:00,11.1,-5.6,30.06,South,188,2.2,2.7,46,0.00,,---,0.00,VWS V14.01,2013-03-05 06:48:00,
2013-03-04 23:52:00,10.8,-5.9,30.06,SSW,202,4.9,4.9,46,0.00,,---,0.00,VWS V14.01,2013-03-05 06:52:00,
2013-03-04 23:53:00,10.8,-5.9,30.06,SSW,200,3.1,4.9,46,0.00,,---,0.00,VWS V14.01,2013-03-05 06:53:00,
2013-03-04 23:57:00,10.4,-6.3,30.06,SSW,198,4.0,7.6,46,0.00,,---,0.00,VWS V14.01,2013-03-05 06:57:00,
2013-03-04 23:58:00,10.2,-6.4,30.06,SSW,194,5.4,7.6,46,0.00,,---,0.00,VWS V14.01,2013-03-05 06:58:00,